K3TXT Weather Reports


time (UTC)temp
C
wind
direction
speed
KPH
gust
KPH
rain 1hr
cm
rain 24hr
cm
rain mn
cm
humidity
%
barometer
mb
20260906125730 -17 0 1.6 4.8 0.00 0.10 0.00 1013.0
20260906125630 -17 0 1.6 4.8 0.00 0.10 0.00 1012.9
20260906125529 -17 0 3.2 6.4 0.00 0.10 0.00 1012.9
20260906125428 -17 0 3.2 9.7 0.00 0.10 0.00 1012.9
20260906125228 -17 0 3.2 9.7 0.00 0.10 0.00 1012.8
20260906125127 -17 0 3.2 9.7 0.00 0.10 0.00 1012.8
20260906125027 -17 355 3.2 9.7 0.00 0.10 0.00 1012.9
20260906124928 -17 355 3.2 9.7 0.00 0.10 0.00 1012.8
20260906124725 -17 355 3.2 9.7 0.00 0.10 0.00 1012.8
20260906124626 -17 0 1.6 9.7 0.00 0.10 0.00 1012.8
20260906124524 -17 0 1.6 9.7 0.00 0.10 0.00 1012.7
20260906124423 -17 327 1.6 6.4 0.00 0.10 0.00 1012.8
20260906124221 -17 327 1.6 6.4 0.00 0.10 0.00 1012.8
20260906124122 -17 327 1.6 6.4 0.00 0.10 0.00 1012.7
20260906124021 -17 327 1.6 14.5 0.00 0.10 0.00 1012.8
20260906123922 -17 327 1.6 14.5 0.00 0.10 0.00 1012.7
20260906123723 -17 327 1.6 14.5 0.00 0.10 0.00 1012.8
20260906123623 -17 327 3.2 14.5 0.00 0.10 0.00 1012.8
20260906123519 -17 327 3.2 14.5 0.00 0.10 0.00 1012.8
20260906123421 -17 327 3.2 14.5 0.00 0.10 0.00 1012.8
20260906123318 -17 327 3.2 14.5 0.00 0.10 0.00 1012.8
20260906123219 -17 325 3.2 14.5 0.00 0.10 0.00 1012.8
20260906123116 -17 325 3.2 14.5 0.00 0.10 0.00 1012.8
20260906123015 -17 331 1.6 8.0 0.00 0.10 0.00 1012.8
20260906122914 -17 350 1.6 8.0 0.00 0.10 0.00 1012.8
20260906122815 -17 350 1.6 8.0 0.00 0.10 0.00 1012.8
20260906122715 -17 350 1.6 8.0 0.00 0.10 0.00 1012.8
20260906122614 -17 335 1.6 6.4 0.00 0.10 0.00 1012.8
20260906122512 -17 335 1.6 6.4 0.00 0.10 0.00 1012.8
20260906122437 -17 335 1.6 6.4 0.00 0.10 0.00 1012.9
20260906122310 -17 335 1.6 6.4 0.00 0.10 0.00 1012.9
20260906122211 -17 335 1.6 6.4 0.00 0.10 0.00 1012.9
20260906122109 -17 335 1.6 6.4 0.00 0.10 0.00 1012.9
20260906122011 -17 335 1.6 6.4 0.00 0.10 0.00 1012.8
20260906121911 -17 335 1.6 6.4 0.00 0.10 0.00 1012.9
20260906121810 -17 335 1.6 6.4 0.00 0.10 0.00 1012.8
20260906121709 -17 335 1.6 6.4 0.00 0.10 0.00 1012.7
20260906121610 -17 335 3.2 6.4 0.00 0.10 0.00 1012.8
20260906121509 -17 335 3.2 6.4 0.00 0.10 0.00 1012.9
20260906121407 -17 335 3.2 6.4 0.00 0.10 0.00 1012.9
20260906121305 -17 335 3.2 6.4 0.00 0.10 0.00 1012.8
20260906121205 -17 335 3.2 6.4 0.00 0.10 0.00 1012.8
20260906121105 -17 335 3.2 6.4 0.00 0.10 0.00 1012.7
20260906121004 -17 335 3.2 6.4 0.00 0.10 0.00 1012.8
20260906120903 -17 335 3.2 6.4 0.00 0.10 0.00 1012.8
20260906120803 -17 335 3.2 6.4 0.00 0.10 0.00 1012.7
20260906120701 -17 335 3.2 6.4 0.00 0.10 0.00 1012.7
20260906120601 -17 335 3.2 6.4 0.00 0.10 0.00 1012.7
20260906120500 -17 335 3.2 6.4 0.00 0.10 0.00 1012.7
20260906120436 -17 335 3.2 6.4 0.00 0.10 0.00 1012.7
20260906120259 -17 335 1.6 6.4 0.00 0.10 0.00 1012.6
20260906120157 -17 335 1.6 6.4 0.00 0.10 0.00 1012.6
20260906120058 -17 335 1.6 4.8 0.00 0.10 0.00 1012.6
20260906115956 -17 335 1.6 4.8 0.00 0.10 0.00 1012.7
20260906115853 -17 335 1.6 4.8 0.00 0.10 0.00 1012.6
20260906115753 -17 335 1.6 4.8 0.00 0.10 0.00 1012.6
20260906115653 -17 335 1.6 3.2 0.00 0.10 0.00 1012.6
20260906115552 -17 335 0.0 3.2 0.00 0.10 0.00 1012.6
20260906115451 -17 335 0.0 3.2 0.00 0.10 0.00 1012.6
20260906115351 -17 335 0.0 3.2 0.00 0.10 0.00 1012.6
20260906115249 -17 335 0.0 3.2 0.00 0.10 0.00 1012.7
20260906115151 -17 335 0.0 3.2 0.00 0.10 0.00 1012.6
20260906115050 -17 335 0.0 3.2 0.00 0.10 0.00 1012.6
20260906114948 -17 335 0.0 3.2 0.00 0.10 0.00 1012.6
20260906114847 -17 335 0.0 3.2 0.00 0.10 0.00 1012.7
20260906114746 -17 335 0.0 3.2 0.00 0.10 0.00 1012.6
20260906114645 -17 335 1.6 3.2 0.00 0.10 0.00 1012.7
20260906114546 -17 335 1.6 3.2 0.00 0.10 0.00 1012.6
20260906114443 -17 335 1.6 3.2 0.00 0.10 0.00 1012.6
20260906114343 -17 335 1.6 3.2 0.00 0.10 0.00 1012.6
20260906114241 -17 335 1.6 3.2 0.00 0.10 0.00 1012.5
20260906114142 -17 335 1.6 3.2 0.00 0.10 0.00 1012.6
20260906114041 -17 335 1.6 3.2 0.00 0.10 0.00 1012.7
20260906113940 -17 335 1.6 3.2 0.00 0.10 0.00 1012.7
20260906113838 -17 335 0.0 3.2 0.00 0.10 0.00 1012.6
20260906113737 -17 335 0.0 3.2 0.00 0.10 0.00 1012.6
20260906113638 -17 335 0.0 3.2 0.00 0.10 0.00 1012.6
20260906113538 -17 335 0.0 3.2 0.00 0.10 0.00 1012.6
20260906113436 -17 335 0.0 3.2 0.00 0.10 0.00 1012.5
20260906113233 -17 335 0.0 0.0 0.00 0.10 0.00 1012.5
20260906113134 -17 335 0.0 0.0 0.00 0.10 0.00 1012.5
20260906113033 -17 335 0.0 0.0 0.00 0.10 0.00 1012.5
20260906112933 -17 335 0.0 0.0 0.00 0.10 0.00 1012.5
20260906112730 -17 335 0.0 0.0 0.00 0.10 0.00 1012.5
20260906112629 -17 335 0.0 0.0 0.00 0.10 0.00 1012.6
20260906112529 -17 335 0.0 0.0 0.00 0.10 0.00 1012.6
20260906112428 -17 335 0.0 0.0 0.00 0.10 0.00 1012.6
20260906112227 -17 335 0.0 0.0 0.00 0.10 0.00 1012.5
20260906112125 -17 335 0.0 0.0 0.00 0.10 0.00 1012.5
20260906112024 -17 335 0.0 0.0 0.00 0.10 0.00 1012.5
20260906111925 -17 335 0.0 0.0 0.00 0.10 0.00 1012.5
20260906111721 -17 335 0.0 0.0 0.00 0.10 0.00 1012.5
20260906111622 -17 335 0.0 0.0 0.00 0.10 0.00 1012.5
20260906111520 -17 335 0.0 0.0 0.00 0.10 0.00 1012.5
20260906111420 -17 335 0.0 0.0 0.00 0.10 0.00 1012.5
20260906111218 -17 335 0.0 0.0 0.00 0.10 0.00 1012.5
20260906111117 -17 335 0.0 0.0 0.00 0.10 0.00 1012.5
20260906111017 -17 335 0.0 0.0 0.00 0.10 0.00 1012.4
20260906110917 -17 335 0.0 0.0 0.00 0.10 0.00 1012.4
20260906110715 -17 335 0.0 0.0 0.00 0.10 0.00 1012.5
20260906110615 -17 335 0.0 0.0 0.00 0.10 0.00 1012.5
20260906110514 -17 335 0.0 0.0 0.00 0.10 0.00 1012.4
20260906110412 -17 335 0.0 1.6 0.00 0.10 0.00 1012.5
20260906110210 -17 335 0.0 1.6 0.00 0.10 0.00 1012.5
20260906110109 -17 335 0.0 1.6 0.00 0.10 0.00 1012.5
20260906110009 -17 335 0.0 1.6 0.00 0.10 0.00 1012.4
20260906105908 -17 335 0.0 1.6 0.00 0.10 0.00 1012.4
20260906105807 -17 335 0.0 1.6 0.00 0.10 0.00 1012.4
20260906105707 -17 335 0.0 1.6 0.00 0.10 0.00 1012.4
20260906105608 -17 335 0.0 1.6 0.00 0.10 0.00 1012.3
20260906105508 -17 335 0.0 1.6 0.00 0.10 0.00 1012.4
20260906105407 -17 335 0.0 1.6 0.00 0.10 0.00 1012.2
20260906105308 -17 335 0.0 1.6 0.00 0.10 0.00 1012.3
20260906105207 -17 335 0.0 1.6 0.00 0.10 0.00 1012.3
20260906105107 -17 335 0.0 1.6 0.00 0.10 0.00 1012.2
20260906105009 -17 335 0.0 1.6 0.00 0.10 0.00 1012.2
20260906104926 -17 335 0.0 1.6 0.00 0.10 0.00 1012.3
20260906104807 -17 335 0.0 1.6 0.00 0.10 0.00 1012.3
20260906104705 -17 335 0.0 1.6 0.00 0.10 0.00 1012.3
20260906104607 -17 335 0.0 1.6 0.00 0.10 0.00 1012.3
20260906104503 -17 335 0.0 0.0 0.00 0.10 0.00 1012.2
20260906104403 -17 335 0.0 0.0 0.00 0.10 0.00 1012.2
20260906104303 -17 335 0.0 0.0 0.00 0.10 0.00 1012.3
20260906104201 -17 335 0.0 0.0 0.00 0.10 0.00 1012.2
20260906104101 -17 335 0.0 0.0 0.00 0.10 0.00 1012.2
20260906104001 -17 335 0.0 0.0 0.00 0.10 0.00 1012.1
20260906103859 -17 335 0.0 0.0 0.00 0.10 0.00 1012.2
20260906103800 -17 335 0.0 0.0 0.00 0.10 0.00 1012.1
20260906103657 -17 335 0.0 0.0 0.00 0.10 0.00 1012.1
20260906103557 -17 335 0.0 0.0 0.00 0.10 0.00 1012.1
20260906103456 -17 335 0.0 0.0 0.00 0.10 0.00 1012.1
20260906103355 -17 335 0.0 0.0 0.00 0.10 0.00 1012.1
20260906103256 -17 335 0.0 1.6 0.00 0.10 0.00 1012.2
20260906103154 -17 335 0.0 1.6 0.00 0.10 0.00 1012.1
20260906103055 -17 335 0.0 3.2 0.00 0.10 0.00 1012.1
20260906102951 -17 335 0.0 3.2 0.00 0.10 0.00 1012.2
20260906102852 -17 335 0.0 3.2 0.00 0.10 0.00 1012.1
20260906102751 -17 335 0.0 3.2 0.00 0.10 0.00 1012.2
20260906102650 -17 335 0.0 3.2 0.00 0.10 0.00 1012.1
20260906102549 -17 335 0.0 3.2 0.00 0.10 0.00 1012.1
20260906102447 -17 335 0.0 3.2 0.00 0.10 0.00 1012.0
20260906102347 -17 335 0.0 3.2 0.00 0.10 0.00 1012.0
20260906102248 -17 335 0.0 3.2 0.00 0.10 0.00 1012.0
20260906102146 -17 335 0.0 3.2 0.00 0.10 0.00 1011.9
20260906102046 -17 335 0.0 1.6 0.00 0.10 0.00 1011.8
20260906101944 -17 335 0.0 0.0 0.00 0.10 0.00 1011.9
20260906101922 -17 335 0.0 0.0 0.00 0.10 0.00 1011.9
20260906101745 -17 335 0.0 0.0 0.00 0.10 0.00 1011.8
20260906101642 -17 335 0.0 0.0 0.00 0.10 0.00 1011.9
20260906101541 -17 335 0.0 0.0 0.00 0.10 0.00 1011.8
20260906101439 -17 335 0.0 0.0 0.00 0.10 0.00 1011.8
20260906101420 -17 335 0.0 0.0 0.00 0.10 0.00 1011.8
20260906101239 -17 335 0.0 0.0 0.00 0.10 0.00 1011.8
20260906101138 -17 335 0.0 0.0 0.00 0.10 0.00 1011.9
20260906101037 -17 335 0.0 0.0 0.00 0.10 0.00 1011.7
20260906100936 -17 335 0.0 0.0 0.00 0.10 0.00 1011.8
20260906100835 -17 335 0.0 0.0 0.00 0.10 0.00 1011.8
20260906100735 -17 335 0.0 1.6 0.00 0.10 0.00 1011.7
20260906100633 -17 335 0.0 1.6 0.00 0.10 0.00 1011.7
20260906100533 -17 335 0.0 1.6 0.00 0.10 0.00 1011.7
20260906100432 -17 335 0.0 1.6 0.00 0.10 0.00 1011.7
20260906100331 -17 335 0.0 1.6 0.00 0.10 0.00 1011.7
20260906100232 -17 335 0.0 1.6 0.00 0.10 0.00 1011.7
20260906100129 -17 335 0.0 1.6 0.00 0.10 0.00 1011.7
20260906100029 -17 335 0.0 1.6 0.00 0.10 0.00 1011.7
20260906095927 -17 335 0.0 1.6 0.00 0.10 0.00 1011.6
20260906095829 -17 335 0.0 1.6 0.00 0.10 0.00 1011.7
20260906095727 -17 335 0.0 0.0 0.00 0.10 0.00 1011.7
20260906095627 -17 335 0.0 0.0 0.00 0.10 0.00 1011.7
20260906095526 -17 335 0.0 0.0 0.00 0.10 0.00 1011.7
20260906095423 -17 335 0.0 0.0 0.00 0.10 0.00 1011.7
20260906095323 -17 335 0.0 0.0 0.00 0.10 0.00 1011.7
20260906095224 -17 335 0.0 0.0 0.00 0.10 0.00 1011.8
20260906095122 -17 335 0.0 0.0 0.00 0.10 0.00 1011.7
20260906095022 -17 335 0.0 0.0 0.00 0.10 0.00 1011.8
20260906094919 -17 335 0.0 0.0 0.00 0.10 0.00 1011.7
20260906094720 -17 335 0.0 0.0 0.00 0.10 0.00 1011.7
20260906094617 -17 335 0.0 1.6 0.00 0.10 0.00 1011.7
20260906094517 -17 335 0.0 3.2 0.00 0.10 0.00 1011.7
20260906094415 -17 335 0.0 3.2 0.00 0.10 0.00 1011.7
20260906094315 -17 335 0.0 3.2 0.00 0.10 0.00 1011.8
20260906094216 -17 335 0.0 3.2 0.00 0.10 0.00 1011.7
20260906094115 -17 335 0.0 3.2 0.00 0.10 0.00 1011.8
20260906094013 -17 335 0.0 3.2 0.00 0.10 0.00 1011.7
20260906093912 -17 335 0.0 3.2 0.00 0.10 0.00 1011.8
20260906093813 -17 335 1.6 3.2 0.00 0.10 0.00 1011.8
20260906093711 -17 335 1.6 3.2 0.00 0.10 0.00 1011.7
20260906093610 -17 335 0.0 3.2 0.00 0.10 0.00 1011.6
20260906093509 -17 335 0.0 3.2 0.00 0.10 0.00 1011.7
20260906093409 -17 335 0.0 3.2 0.00 0.10 0.00 1011.7
20260906093207 -17 335 0.0 3.2 0.00 0.10 0.00 1011.7
20260906093105 -17 335 0.0 3.2 0.00 0.10 0.00 1011.7
20260906093003 -17 335 0.0 3.2 0.00 0.10 0.00 1011.7
20260906092904 -17 335 0.0 3.2 0.00 0.10 0.00 1011.7
20260906092803 -17 335 0.0 3.2 0.00 0.10 0.00 1011.7
20260906092703 -17 335 0.0 3.2 0.00 0.10 0.00 1011.7
20260906092603 -17 335 0.0 3.2 0.00 0.10 0.00 1011.7
20260906092501 -17 335 0.0 3.2 0.00 0.10 0.00 1011.6
20260906092423 -17 335 0.0 1.6 0.00 0.10 0.00 1011.7
20260906092259 -17 335 0.0 0.0 0.00 0.10 0.00 1011.6
20260906092200 -17 335 0.0 0.0 0.00 0.10 0.00 1011.6
20260906092058 -17 335 0.0 1.6 0.00 0.10 0.00 1011.6
20260906091958 -17 335 0.0 1.6 0.00 0.10 0.00 1011.7
20260906091856 -17 335 0.0 1.6 0.00 0.10 0.00 1011.7
20260906091756 -17 335 0.0 1.6 0.00 0.10 0.00 1011.6
20260906091654 -17 335 0.0 1.6 0.00 0.10 0.00 1011.5
20260906091553 -17 335 0.0 1.6 0.00 0.10 0.00 1011.7
20260906091453 -17 335 0.0 1.6 0.00 0.10 0.00 1011.6
20260906091351 -17 335 0.0 1.6 0.00 0.10 0.00 1011.6
20260906091250 -17 335 0.0 1.6 0.00 0.10 0.00 1011.5
20260906091150 -17 335 0.0 1.6 0.00 0.10 0.00 1011.5
20260906091049 -17 335 0.0 1.6 0.00 0.10 0.00 1011.5
20260906090949 -17 335 0.0 0.0 0.00 0.10 0.00 1011.5
20260906090847 -17 335 0.0 0.0 0.00 0.10 0.00 1011.5
20260906090747 -17 335 0.0 0.0 0.00 0.10 0.00 1011.5
20260906090647 -17 335 0.0 0.0 0.00 0.10 0.00 1011.4
20260906090545 -17 335 0.0 0.0 0.00 0.10 0.00 1011.5
20260906090446 -17 335 0.0 0.0 0.00 0.10 0.00 1011.4
20260906090344 -17 335 0.0 0.0 0.00 0.10 0.00 1011.3
20260906090242 -17 335 0.0 0.0 0.00 0.10 0.00 1011.4
20260906090145 -17 335 0.0 0.0 0.00 0.10 0.00 1011.3
20260906090041 -17 335 0.0 0.0 0.00 0.10 0.00 1011.3
20260906085941 -17 335 0.0 0.0 0.00 0.10 0.00 1011.3
20260906085839 -17 335 0.0 0.0 0.00 0.10 0.00 1011.3
20260906085739 -17 335 0.0 0.0 0.00 0.10 0.00 1011.3
20260906085639 -17 335 0.0 0.0 0.00 0.10 0.00 1011.3
20260906085538 -17 335 0.0 0.0 0.00 0.10 0.00 1011.3
20260906085437 -17 335 0.0 0.0 0.00 0.10 0.00 1011.3
20260906085335 -17 335 0.0 0.0 0.00 0.10 0.00 1011.3
20260906085235 -17 335 0.0 0.0 0.00 0.10 0.00 1011.3
20260906085136 -17 335 0.0 0.0 0.00 0.10 0.00 1011.3
20260906085034 -17 335 0.0 0.0 0.00 0.10 0.00 1011.2
20260906084933 -17 335 0.0 0.0 0.00 0.10 0.00 1011.3
20260906084832 -17 335 0.0 0.0 0.00 0.10 0.00 1011.1
20260906084731 -17 335 0.0 0.0 0.00 0.10 0.00 1011.2
20260906084632 -17 335 0.0 0.0 0.00 0.10 0.00 1011.1
20260906084528 -17 335 0.0 0.0 0.00 0.10 0.00 1011.2
20260906084430 -17 335 0.0 0.0 0.00 0.10 0.00 1011.2
20260906084328 -17 335 0.0 0.0 0.00 0.10 0.00 1011.1
20260906084226 -17 335 0.0 1.6 0.00 0.10 0.00 1011.2
20260906084127 -17 335 0.0 3.2 0.00 0.10 0.00 1011.3
20260906084026 -17 335 0.0 3.2 0.00 0.10 0.00 1011.3
20260906083925 -17 335 0.0 3.2 0.00 0.10 0.00 1011.1
20260906083824 -17 335 0.0 3.2 0.00 0.10 0.00 1011.3
20260906083723 -17 335 0.0 3.2 0.00 0.10 0.00 1011.2
20260906083624 -17 335 0.0 3.2 0.00 0.10 0.00 1011.2
20260906083522 -17 335 0.0 3.2 0.00 0.10 0.00 1011.3
20260906083428 -17 335 0.0 3.2 0.00 0.10 0.00 1011.2
20260906083414 -17 335 0.0 3.2 0.00 0.10 0.00 1011.2
20260906083219 -17 335 0.0 3.2 0.00 0.10 0.00 1011.3
20260906083120 -17 335 0.0 3.2 0.00 0.10 0.00 1011.2
20260906083017 -17 335 0.0 3.2 0.00 0.10 0.00 1011.3
20260906082917 -17 335 0.0 3.2 0.00 0.10 0.00 1011.2
20260906082816 -17 335 0.0 3.2 0.00 0.10 0.00 1011.2
20260906082717 -17 335 0.0 3.2 0.00 0.10 0.00 1011.3
20260906082616 -17 335 0.0 3.2 0.00 0.10 0.00 1011.3
20260906082514 -17 335 0.0 3.2 0.00 0.10 0.00 1011.4
20260906082413 -17 335 0.0 3.2 0.00 0.10 0.00 1011.3
20260906082211 -17 335 0.0 0.0 0.00 0.10 0.00 1011.2
20260906082111 -17 335 0.0 0.0 0.00 0.10 0.00 1011.1
20260906082010 -17 335 0.0 0.0 0.00 0.10 0.00 1011.1
20260906081907 -17 335 0.0 0.0 0.00 0.10 0.00 1011.1
20260906081707 -17 335 0.0 0.0 0.00 0.10 0.00 1011.1
20260906081608 -17 335 0.0 0.0 0.00 0.10 0.00 1011.0
20260906081508 -17 335 0.0 0.0 0.00 0.10 0.00 1011.0
20260906081407 -17 335 0.0 0.0 0.00 0.10 0.00 1011.1
20260906081207 -17 335 0.0 0.0 0.00 0.10 0.00 1011.0
20260906081106 -17 335 0.0 0.0 0.00 0.10 0.00 1011.0
20260906080907 -17 335 0.0 0.0 0.00 0.10 0.00 1011.2
20260906080705 -17 335 0.0 1.6 0.00 0.10 0.00 1011.2
20260906080603 -17 335 0.0 1.6 0.00 0.10 0.00 1011.3
20260906080503 -17 335 0.0 1.6 0.00 0.10 0.00 1011.3
20260906080403 -17 335 0.0 3.2 0.00 0.10 0.00 1011.3
20260906080302 -17 335 0.0 3.2 0.00 0.10 0.00 1011.2
20260906080202 -17 335 0.0 3.2 0.00 0.10 0.00 1011.3
20260906080100 -17 335 0.0 3.2 0.00 0.10 0.00 1011.3
20260906075959 -17 335 0.0 3.2 0.00 0.10 0.00 1011.3
20260906075921 -17 335 0.0 3.2 0.00 0.10 0.00 1011.3
20260906075757 -17 335 0.0 3.2 0.00 0.10 0.00 1011.2
20260906075658 -17 335 0.0 3.2 0.00 0.10 0.00 1011.3
20260906075555 -17 335 0.0 3.2 0.00 0.10 0.00 1011.2
20260906075456 -17 335 0.0 3.2 0.00 0.10 0.00 1011.2
20260906075355 -17 335 0.0 1.6 0.00 0.10 0.00 1011.3
20260906075254 -17 335 0.0 1.6 0.00 0.10 0.00 1011.2
20260906075154 -17 335 0.0 1.6 0.00 0.10 0.00 1011.3
20260906075052 -17 335 0.0 0.0 0.00 0.10 0.00 1011.3
20260906074950 -17 335 0.0 0.0 0.00 0.10 0.00 1011.1
20260906074851 -17 335 0.0 0.0 0.00 0.10 0.00 1011.1
20260906074750 -17 335 0.0 0.0 0.00 0.10 0.00 1011.1
20260906074646 -17 335 0.0 0.0 0.00 0.10 0.00 1011.0
20260906074547 -17 335 0.0 0.0 0.00 0.10 0.00 1011.1
20260906074445 -17 335 0.0 0.0 0.00 0.10 0.00 1011.0
20260906074345 -17 335 0.0 0.0 0.00 0.10 0.00 1011.0
20260906074243 -17 335 0.0 0.0 0.00 0.10 0.00 1011.0
20260906074145 -17 335 0.0 0.0 0.00 0.10 0.00 1011.0
20260906074041 -17 335 0.0 1.6 0.00 0.10 0.00 1011.0
20260906073942 -17 335 0.0 1.6 0.00 0.10 0.00 1011.1
20260906073915 -17 335 0.0 1.6 0.00 0.10 0.00 1011.1
20260906073740 -17 335 0.0 1.6 0.00 0.10 0.00 1011.2
20260906073639 -17 335 0.0 1.6 0.00 0.10 0.00 1011.2
20260906073538 -17 335 0.0 1.6 0.00 0.10 0.00 1011.2
20260906073437 -17 335 0.0 1.6 0.00 0.10 0.00 1011.2
20260906073338 -17 335 0.0 1.6 0.00 0.10 0.00 1011.2
20260906073235 -17 335 0.0 1.6 0.00 0.10 0.00 1011.3
20260906073135 -17 335 0.0 1.6 0.00 0.10 0.00 1011.1
20260906073033 -17 335 0.0 1.6 0.00 0.10 0.00 1011.2
20260906072934 -17 335 0.0 1.6 0.00 0.10 0.00 1011.1
20260906072833 -17 335 0.0 3.2 0.00 0.10 0.00 1011.2
20260906072731 -17 335 0.0 3.2 0.00 0.10 0.00 1011.1
20260906072630 -17 335 0.0 3.2 0.00 0.10 0.00 1011.1
20260906072530 -17 335 0.0 3.2 0.00 0.10 0.00 1011.1
20260906072430 -17 335 0.0 3.2 0.00 0.10 0.00 1011.1
20260906072329 -17 335 0.0 3.2 0.00 0.10 0.00 1011.0
20260906072228 -17 335 0.0 3.2 0.00 0.10 0.00 1011.0
20260906072127 -17 335 0.0 3.2 0.00 0.10 0.00 1011.0
20260906072026 -17 335 0.0 3.2 0.00 0.10 0.00 1011.1
20260906071924 -17 335 0.0 3.2 0.00 0.10 0.00 1011.0
20260906071824 -17 335 0.0 3.2 0.00 0.10 0.00 1011.0
20260906071726 -17 335 0.0 3.2 0.00 0.10 0.00 1011.0
20260906071627 -17 335 1.6 3.2 0.00 0.10 0.00 1011.0
20260906071524 -17 335 1.6 3.2 0.00 0.10 0.00 1011.0
20260906071425 -17 335 1.6 3.2 0.00 0.10 0.00 1011.0
20260906071326 -17 335 1.6 3.2 0.00 0.10 0.00 1011.0
20260906071223 -17 335 1.6 3.2 0.00 0.10 0.00 1011.1
20260906071124 -17 335 1.6 3.2 0.00 0.10 0.00 1011.1
20260906071023 -17 335 0.0 3.2 0.00 0.10 0.00 1011.0
20260906070923 -17 335 0.0 3.2 0.00 0.10 0.00 1011.0
20260906070909 -17 335 0.0 3.2 0.00 0.10 0.00 1011.0
20260906070724 -17 335 0.0 3.2 0.00 0.10 0.00 1011.0
20260906070624 -17 335 0.0 3.2 0.00 0.10 0.00 1011.1
20260906070524 -17 335 0.0 3.2 0.00 0.10 0.00 1011.1
20260906070423 -17 335 0.0 3.2 0.00 0.10 0.00 1011.0
20260906070409 -17 335 0.0 3.2 0.00 0.10 0.00 1011.0
20260906070223 -17 335 0.0 3.2 0.00 0.10 0.00 1011.0
20260906070124 -17 335 1.6 3.2 0.00 0.10 0.00 1011.1
20260906070025 -17 335 1.6 3.2 0.00 0.10 0.00 1011.2
20260906065923 -17 335 1.6 4.8 0.00 0.10 0.00 1011.2
20260906065822 -17 335 1.6 4.8 0.00 0.10 0.00 1011.2
20260906065723 -17 335 1.6 4.8 0.00 0.10 0.00 1011.3
20260906065623 -17 335 1.6 4.8 0.00 0.10 0.00 1011.3
20260906065524 -17 335 1.6 4.8 0.00 0.10 0.00 1011.3
20260906065424 -17 335 1.6 4.8 0.00 0.10 0.00 1011.4
20260906065324 -17 335 1.6 4.8 0.00 0.10 0.00 1011.4
20260906065224 -17 335 1.6 4.8 0.00 0.10 0.00 1011.4
20260906065122 -17 335 1.6 4.8 0.00 0.10 0.00 1011.4
20260906065024 -17 335 0.0 4.8 0.00 0.10 0.00 1011.4
20260906064922 -17 335 0.0 3.2 0.00 0.10 0.00 1011.4
20260906064823 -17 335 0.0 3.2 0.00 0.10 0.00 1011.4
20260906064722 -17 335 0.0 1.6 0.00 0.10 0.00 1011.4
20260906064623 -17 335 0.0 0.0 0.00 0.10 0.00 1011.3
20260906064523 -17 335 0.0 0.0 0.00 0.10 0.00 1011.4
20260906064424 -17 335 0.0 0.0 0.00 0.10 0.00 1011.4
20260906064323 -17 335 0.0 0.0 0.00 0.10 0.00 1011.4
20260906064223 -17 335 0.0 0.0 0.00 0.10 0.00 1011.4
20260906064122 -17 335 0.0 0.0 0.00 0.10 0.00 1011.5
20260906064024 -17 335 0.0 0.0 0.00 0.10 0.00 1011.5
20260906063925 -17 335 0.0 0.0 0.00 0.10 0.00 1011.5
20260906063824 -17 335 0.0 0.0 0.00 0.10 0.00 1011.6
20260906063723 -17 335 0.0 1.6 0.00 0.10 0.00 1011.6
20260906063624 -17 335 0.0 3.2 0.00 0.10 0.00 1011.6
20260906063523 -17 335 0.0 3.2 0.00 0.10 0.00 1011.6
20260906063424 -17 335 0.0 3.2 0.00 0.10 0.00 1011.6
20260906063323 -17 335 0.0 3.2 0.00 0.10 0.00 1011.6
20260906063223 -17 335 0.0 3.2 0.00 0.10 0.00 1011.6
20260906063124 -17 335 0.0 3.2 0.00 0.10 0.00 1011.6
20260906063023 -17 335 0.0 4.8 0.00 0.10 0.00 1011.7
20260906062924 -17 335 0.0 4.8 0.00 0.10 0.00 1011.6
20260906062823 -17 335 0.0 4.8 0.00 0.10 0.00 1011.7
20260906062724 -17 335 0.0 4.8 0.00 0.10 0.00 1011.6
20260906062624 -17 335 0.0 6.4 0.00 0.10 0.00 1011.7
20260906062524 -17 335 0.0 6.4 0.00 0.10 0.00 1011.7
20260906062424 -17 335 0.0 6.4 0.00 0.10 0.00 1011.7
20260906062323 -17 335 0.0 6.4 0.00 0.10 0.00 1011.7
20260906062225 -17 335 1.6 6.4 0.00 0.10 0.00 1011.7
20260906062122 -17 335 1.6 6.4 0.00 0.10 0.00 1011.8
20260906062024 -17 335 1.6 6.4 0.00 0.10 0.00 1011.7
20260906061922 -17 335 1.6 8.0 0.00 0.10 0.00 1011.7
20260906061822 -17 335 1.6 8.0 0.00 0.10 0.00 1011.7
20260906061724 -17 335 1.6 8.0 0.00 0.10 0.00 1011.7
20260906061623 -17 335 1.6 8.0 0.00 0.10 0.00 1011.7
20260906061522 -17 335 1.6 8.0 0.00 0.10 0.00 1011.7
20260906061423 -17 335 1.6 8.0 0.00 0.10 0.00 1011.7
20260906061323 -17 335 1.6 8.0 0.00 0.10 0.00 1011.7
20260906061224 -17 335 1.6 8.0 0.00 0.10 0.00 1011.7
20260906061123 -17 335 1.6 8.0 0.00 0.10 0.00 1011.7
20260906061024 -17 335 1.6 8.0 0.00 0.10 0.00 1011.7
20260906060923 -17 323 1.6 6.4 0.00 0.10 0.00 1011.7
20260906060824 -17 323 1.6 6.4 0.00 0.10 0.00 1011.7
20260906060723 -17 323 1.6 6.4 0.00 0.10 0.00 1011.8
20260906060623 -17 323 1.6 6.4 0.00 0.10 0.00 1011.8
20260906060522 -17 323 1.6 6.4 0.00 0.10 0.00 1011.7
20260906060424 -17 323 1.6 6.4 0.00 0.10 0.00 1011.7
20260906060323 -17 323 1.6 6.4 0.00 0.10 0.00 1011.7
20260906060222 -17 323 1.6 6.4 0.00 0.10 0.00 1011.7
20260906060123 -17 323 0.0 6.4 0.00 0.10 0.00 1011.7
20260906060024 -17 323 0.0 4.8 0.00 0.10 0.00 1011.7
20260906055922 -17 323 0.0 4.8 0.00 0.10 0.00 1011.8
20260906055824 -17 323 0.0 3.2 0.00 0.10 0.00 1011.9
20260906055721 -17 323 0.0 4.8 0.00 0.10 0.00 1011.9
20260906055621 -17 323 0.0 4.8 0.00 0.10 0.00 1011.9
20260906055520 -17 323 0.0 4.8 0.00 0.10 0.00 1011.9
20260906055423 -17 323 0.0 4.8 0.00 0.10 0.00 1011.9
20260906055407 -17 323 1.6 4.8 0.00 0.10 0.00 1011.9
20260906055221 -17 323 1.6 4.8 0.00 0.10 0.00 1011.9
20260906055120 -17 323 1.6 4.8 0.00 0.10 0.00 1011.8
20260906055022 -17 323 1.6 4.8 0.00 0.10 0.00 1011.8
20260906054922 -17 323 1.6 4.8 0.00 0.10 0.00 1011.8
20260906054821 -17 323 1.6 4.8 0.00 0.10 0.00 1011.8
20260906054722 -17 323 1.6 4.8 0.00 0.10 0.00 1011.8
20260906054622 -17 323 1.6 4.8 0.00 0.10 0.00 1011.8
20260906054521 -17 323 1.6 4.8 0.00 0.10 0.00 1011.8
20260906054419 -17 323 1.6 4.8 0.00 0.10 0.00 1011.8
20260906054320 -17 323 1.6 4.8 0.00 0.10 0.00 1011.8
20260906054221 -17 323 1.6 6.4 0.00 0.10 0.00 1011.9
20260906054117 -17 323 1.6 6.4 0.00 0.10 0.00 1011.8
20260906054017 -17 323 1.6 8.0 0.00 0.10 0.00 1012.0
20260906053916 -17 323 1.6 8.0 0.00 0.10 0.00 1011.9
20260906053817 -17 323 1.6 8.0 0.00 0.10 0.00 1012.0
20260906053716 -17 323 1.6 8.0 0.00 0.10 0.00 1011.9
20260906053614 -17 323 1.6 8.0 0.00 0.10 0.00 1011.8
20260906053512 -17 323 1.6 8.0 0.00 0.10 0.00 1011.9
20260906053412 -17 323 1.6 8.0 0.00 0.10 0.00 1011.9
20260906053312 -17 323 1.6 8.0 0.00 0.10 0.00 1011.9
20260906053210 -17 323 1.6 8.0 0.00 0.10 0.00 1011.9
20260906053109 -17 323 1.6 8.0 0.00 0.10 0.00 1012.0
20260906053008 -17 308 1.6 8.0 0.00 0.10 0.00 1012.0
20260906052907 -17 308 1.6 8.0 0.00 0.10 0.00 1012.0
20260906052807 -17 308 1.6 8.0 0.00 0.10 0.00 1012.0
20260906052705 -17 308 1.6 8.0 0.00 0.10 0.00 1012.0
20260906052604 -17 308 1.6 8.0 0.00 0.10 0.00 1012.0
20260906052505 -17 308 1.6 8.0 0.00 0.10 0.00 1012.0
20260906052406 -17 308 1.6 8.0 0.00 0.10 0.00 1012.0
20260906052306 -17 308 1.6 8.0 0.00 0.10 0.00 1012.1
20260906052204 -17 308 1.6 8.0 0.00 0.10 0.00 1012.2
20260906052105 -17 302 1.6 4.8 0.00 0.10 0.00 1012.1
20260906052005 -17 302 1.6 4.8 0.00 0.10 0.00 1012.1
20260906051903 -17 302 1.6 4.8 0.00 0.10 0.00 1012.0
20260906051802 -17 302 1.6 4.8 0.00 0.10 0.00 1012.1
20260906051704 -17 302 1.6 4.8 0.00 0.10 0.00 1012.1
20260906051604 -17 302 1.6 4.8 0.00 0.10 0.00 1012.1
20260906051504 -17 302 1.6 4.8 0.00 0.10 0.00 1012.1
20260906051402 -17 302 1.6 4.8 0.00 0.10 0.00 1012.0
20260906051303 -17 302 1.6 4.8 0.00 0.10 0.00 1012.1
20260906051202 -17 302 1.6 4.8 0.00 0.10 0.00 1012.1
20260906051104 -17 302 1.6 4.8 0.00 0.10 0.00 1012.0
20260906051003 -17 302 1.6 4.8 0.00 0.10 0.00 1012.1
20260906050904 -17 302 3.2 4.8 0.00 0.10 0.00 1011.9
20260906050802 -17 302 3.2 4.8 0.00 0.10 0.00 1012.0
20260906050701 -17 302 3.2 4.8 0.00 0.10 0.00 1011.9
20260906050601 -17 302 3.2 4.8 0.00 0.10 0.00 1011.9
20260906050459 -17 302 3.2 4.8 0.00 0.10 0.00 1011.8
20260906050358 -17 302 3.2 4.8 0.00 0.10 0.00 1011.9
20260906050157 -17 302 3.2 8.0 0.00 0.10 0.00 1011.9
20260906050056 -17 302 3.2 8.0 0.00 0.10 0.00 1011.9
20260906045954 -17 302 3.2 8.0 0.00 0.10 0.00 1011.9
20260906045855 -17 302 3.2 8.0 0.00 0.10 0.00 1011.9
20260906045652 -17 302 3.2 9.7 0.00 0.10 0.00 1011.8
20260906045552 -17 302 3.2 9.7 0.00 0.10 0.00 1011.9
20260906045449 -17 302 3.2 9.7 0.00 0.10 0.00 1011.8
20260906045349 -17 302 3.2 9.7 0.00 0.10 0.00 1011.8
20260906045247 -17 299 3.2 9.7 0.00 0.10 0.00 1011.9
20260906045148 -17 286 3.2 9.7 0.00 0.10 0.00 1011.9
20260906045046 -17 286 3.2 9.7 0.00 0.10 0.00 1011.9
20260906044945 -17 286 3.2 9.7 0.00 0.10 0.00 1012.0
20260906044907 -17 286 3.2 9.7 0.00 0.10 0.00 1011.9
20260906044745 -17 286 3.2 6.4 0.00 0.10 0.00 1012.0
20260906044644 -17 286 3.2 6.4 0.00 0.10 0.00 1012.1
20260906044544 -17 286 3.2 6.4 0.00 0.10 0.00 1012.0
20260906044442 -17 286 3.2 6.4 0.00 0.10 0.00 1012.0
20260906044341 -17 286 3.2 6.4 0.00 0.10 0.00 1012.0
20260906044241 -17 286 3.2 6.4 0.00 0.10 0.00 1011.9
20260906044140 -17 286 3.2 6.4 0.00 0.10 0.00 1011.9
20260906044039 -17 286 3.2 6.4 0.00 0.10 0.00 1011.9
20260906043938 -17 286 3.2 6.4 0.00 0.10 0.00 1011.9
20260906043904 -17 286 3.2 6.4 0.00 0.10 0.00 1012.0
20260906043738 -17 286 3.2 6.4 0.00 0.10 0.00 1012.0
20260906043636 -17 286 3.2 6.4 0.00 0.10 0.00 1011.9
20260906043536 -17 286 3.2 6.4 0.00 0.10 0.00 1011.8
20260906043434 -17 286 3.2 6.4 0.00 0.10 0.00 1011.8
20260906043332 -17 286 3.2 6.4 0.00 0.10 0.00 1011.8
20260906043232 -17 286 3.2 6.4 0.00 0.10 0.00 1011.7
20260906043134 -17 286 1.6 6.4 0.00 0.10 0.00 1011.8
20260906043032 -17 286 1.6 6.4 0.00 0.10 0.00 1011.8
20260906042931 -17 286 1.6 4.8 0.00 0.10 0.00 1011.8
20260906042832 -17 286 1.6 4.8 0.00 0.10 0.00 1011.8
20260906042728 -17 286 1.6 4.8 0.00 0.10 0.00 1011.8
20260906042629 -17 286 1.6 6.4 0.00 0.10 0.00 1011.8
20260906042529 -17 286 1.6 9.7 0.00 0.10 0.00 1011.8
20260906042426 -17 286 1.6 9.7 0.00 0.10 0.00 1011.7
20260906042327 -17 286 1.6 9.7 0.00 0.10 0.00 1011.8
20260906042224 -17 286 1.6 9.7 0.00 0.10 0.00 1011.8
20260906042125 -17 286 3.2 9.7 0.00 0.10 0.00 1011.8
20260906042024 -17 286 3.2 9.7 0.00 0.10 0.00 1011.8
20260906041926 -17 286 3.2 9.7 0.00 0.10 0.00 1011.8
20260906041826 -17 286 3.2 9.7 0.00 0.10 0.00 1011.6
20260906041724 -17 286 3.2 9.7 0.00 0.10 0.00 1011.7
20260906041625 -17 286 3.2 9.7 0.00 0.10 0.00 1011.7
20260906041525 -17 286 1.6 6.4 0.00 0.10 0.00 1011.7
20260906041426 -17 286 1.6 6.4 0.00 0.10 0.00 1011.6
20260906041323 -17 286 1.6 6.4 0.00 0.10 0.00 1011.6
20260906041223 -17 268 1.6 6.4 0.00 0.10 0.00 1011.7
20260906041124 -17 268 1.6 6.4 0.00 0.10 0.00 1011.6
20260906041021 -17 268 1.6 6.4 0.00 0.10 0.00 1011.6
20260906040920 -17 268 1.6 6.4 0.00 0.10 0.00 1011.6
20260906040822 -17 244 1.6 4.8 0.00 0.10 0.00 1011.6
20260906040719 -17 244 1.6 4.8 0.00 0.10 0.00 1011.5
20260906040620 -17 244 1.6 4.8 0.00 0.10 0.00 1011.5
20260906040516 -17 244 1.6 4.8 0.00 0.10 0.00 1011.6
20260906040418 -17 244 1.6 6.4 0.00 0.10 0.00 1011.5
20260906040316 -17 244 1.6 6.4 0.00 0.10 0.00 1011.5
20260906040216 -17 244 1.6 6.4 0.00 0.10 0.00 1011.5
20260906040114 -17 244 1.6 6.4 0.00 0.10 0.00 1011.5
20260906040012 -17 244 1.6 6.4 0.00 0.10 0.00 1011.5
20260906035913 -17 244 1.6 6.4 0.00 0.10 0.10 1011.4
20260906035854 -17 244 1.6 6.4 0.00 0.10 0.10 1011.3
20260906035713 -17 244 1.6 6.4 0.00 0.10 0.10 1011.4
20260906035612 -17 244 1.6 6.4 0.00 0.10 0.10 1011.3
20260906035511 -17 244 0.0 6.4 0.00 0.10 0.10 1011.4
20260906035410 -17 235 0.0 4.8 0.00 0.10 0.10 1011.3
20260906035353 -17 235 0.0 4.8 0.00 0.10 0.10 1011.3
20260906035209 -17 235 0.0 4.8 0.00 0.10 0.10 1011.3
20260906035107 -17 235 0.0 4.8 0.00 0.10 0.10 1011.3
20260906035008 -17 235 1.6 4.8 0.00 0.10 0.10 1011.3
20260906034907 -17 235 1.6 6.4 0.00 0.10 0.10 1011.3
20260906034805 -17 235 1.6 6.4 0.00 0.10 0.10 1011.3
20260906034705 -17 235 1.6 6.4 0.00 0.10 0.10 1011.4
20260906034604 -17 235 1.6 6.4 0.00 0.10 0.10 1011.4
20260906034503 -17 235 1.6 6.4 0.00 0.10 0.10 1011.3
20260906034403 -17 218 3.2 6.4 0.00 0.10 0.10 1011.4
20260906034304 -17 218 3.2 6.4 0.00 0.10 0.10 1011.4
20260906034202 -17 218 3.2 6.4 0.00 0.10 0.10 1011.5
20260906034102 -17 218 3.2 6.4 0.00 0.10 0.10 1011.5
20260906033959 -17 218 3.2 6.4 0.00 0.10 0.10 1011.4
20260906033901 -17 218 3.2 6.4 0.00 0.10 0.10 1011.5
20260906033701 -17 218 3.2 6.4 0.00 0.10 0.10 1011.5
20260906033559 -17 218 3.2 6.4 0.00 0.10 0.10 1011.4
20260906033501 -17 218 3.2 6.4 0.00 0.10 0.10 1011.4
20260906033400 -17 218 3.2 6.4 0.00 0.10 0.10 1011.4
20260906033159 -17 218 3.2 6.4 0.00 0.10 0.10 1011.5
20260906033059 -17 218 3.2 6.4 0.00 0.10 0.10 1011.5
20260906032955 -17 218 3.2 6.4 0.00 0.10 0.10 1011.4
20260906032855 -17 218 4.8 6.4 0.00 0.10 0.10 1011.5
20260906032653 -17 218 4.8 6.4 0.00 0.10 0.10 1011.5
20260906032553 -17 218 4.8 6.4 0.00 0.10 0.10 1011.4
20260906032453 -17 218 4.8 6.4 0.00 0.10 0.10 1011.4
20260906032352 -17 218 4.8 6.4 0.00 0.10 0.10 1011.5
20260906032150 -17 218 3.2 8.0 0.00 0.10 0.10 1011.5
20260906032051 -17 218 3.2 8.0 0.00 0.10 0.10 1011.4
20260906031947 -17 218 3.2 8.0 0.00 0.10 0.10 1011.5
20260906031847 -17 218 3.2 8.0 0.00 0.10 0.10 1011.5
20260906031647 -17 218 3.2 8.0 0.00 0.10 0.10 1011.6
20260906031543 -17 217 4.8 8.0 0.00 0.10 0.10 1011.6
20260906031444 -17 217 4.8 8.0 0.00 0.10 0.10 1011.7
20260906031344 -17 217 4.8 8.0 0.00 0.10 0.10 1011.6
20260906031141 -17 217 4.8 9.7 0.00 0.10 0.10 1011.7
20260906031041 -17 217 4.8 9.7 0.00 0.10 0.10 1011.7
20260906030939 -17 217 4.8 9.7 0.00 0.10 0.10 1011.6
20260906030840 -17 217 4.8 9.7 0.00 0.10 0.10 1011.7
20260906030739 -17 217 3.2 9.7 0.00 0.10 0.10 1011.7
20260906030637 -17 217 3.2 9.7 0.00 0.10 0.10 1011.7
20260906030537 -17 217 3.2 9.7 0.00 0.10 0.10 1011.8
20260906030437 -17 217 3.2 9.7 0.00 0.10 0.10 1011.8
20260906030339 -17 217 1.6 9.7 0.00 0.10 0.10 1011.8
20260906030238 -17 217 1.6 9.7 0.00 0.10 0.10 1011.8
20260906030137 -17 223 1.6 4.8 0.00 0.10 0.10 1011.9
20260906030039 -17 223 1.6 4.8 0.00 0.10 0.10 1012.0
20260906025936 -17 223 1.6 4.8 0.00 0.10 0.10 1012.0
20260906025833 -17 223 1.6 4.8 0.00 0.10 0.10 1012.0
20260906025734 -17 223 1.6 8.0 0.00 0.10 0.10 1012.0
20260906025633 -17 223 3.2 8.0 0.00 0.10 0.10 1012.0
20260906025535 -17 223 3.2 8.0 0.00 0.10 0.10 1011.9
20260906025432 -17 223 3.2 8.0 0.00 0.10 0.10 1012.0
20260906025329 -17 223 3.2 8.0 0.00 0.10 0.10 1012.0
20260906025229 -17 223 3.2 8.0 0.00 0.10 0.10 1012.0
20260906025129 -17 223 3.2 8.0 0.00 0.10 0.10 1012.0
20260906025031 -17 223 3.2 8.0 0.00 0.10 0.10 1012.0
20260906024931 -17 223 3.2 8.0 0.00 0.10 0.10 1012.0
20260906024829 -17 224 3.2 8.0 0.00 0.10 0.10 1012.0
20260906024730 -17 224 3.2 11.3 0.00 0.10 0.10 1012.0
20260906024629 -17 224 4.8 11.3 0.00 0.10 0.10 1012.1
20260906024529 -17 225 3.2 11.3 0.00 0.10 0.10 1012.1
20260906024428 -17 225 4.8 11.3 0.00 0.10 0.10 1012.0
20260906024327 -17 225 4.8 11.3 0.00 0.10 0.10 1012.1
20260906024229 -17 225 4.8 11.3 0.00 0.10 0.10 1012.1
20260906024127 -17 224 4.8 11.3 0.00 0.10 0.10 1012.1
20260906024029 -17 224 4.8 11.3 0.00 0.10 0.10 1012.1
20260906023927 -17 224 4.8 11.3 0.00 0.10 0.10 1012.1
20260906023828 -17 224 4.8 11.3 0.00 0.10 0.10 1012.2
20260906023726 -17 223 4.8 9.7 0.00 0.10 0.10 1012.1
20260906023623 -17 228 4.8 9.7 0.00 0.10 0.10 1012.2
20260906023523 -17 229 4.8 9.7 0.00 0.10 0.10 1012.2
20260906023423 -17 228 4.8 9.7 0.00 0.10 0.10 1012.2
20260906023356 -17 231 3.2 8.0 0.00 0.10 0.10 1012.2
20260906023224 -17 231 3.2 8.0 0.00 0.10 0.10 1012.2
20260906023125 -17 231 3.2 8.0 0.00 0.10 0.10 1012.3
20260906023024 -17 231 3.2 8.0 0.00 0.10 0.10 1012.3
20260906022923 -17 231 3.2 8.0 0.00 0.10 0.10 1012.3
20260906022824 -17 232 3.2 8.0 0.00 0.10 0.10 1012.4
20260906022723 -17 232 3.2 8.0 0.00 0.10 0.10 1012.4
20260906022623 -17 232 3.2 8.0 0.00 0.10 0.10 1012.4
20260906022524 -17 232 3.2 8.0 0.00 0.10 0.10 1012.4
20260906022421 -17 232 3.2 8.0 0.00 0.10 0.10 1012.4
20260906022323 -17 233 3.2 9.7 0.00 0.10 0.10 1012.4
20260906022221 -17 233 3.2 9.7 0.00 0.10 0.10 1012.4
20260906022121 -17 234 3.2 9.7 0.00 0.10 0.10 1012.4
20260906022019 -17 234 3.2 9.7 0.00 0.10 0.10 1012.4
20260906021920 -17 234 3.2 9.7 0.00 0.10 0.10 1012.4
20260906021817 -17 212 3.2 9.7 0.00 0.10 0.10 1012.4
20260906021719 -17 217 3.2 9.7 0.00 0.10 0.10 1012.4
20260906021618 -17 217 4.8 9.7 0.00 0.10 0.10 1012.3
20260906021515 -17 216 3.2 9.7 0.00 0.10 0.10 1012.4
20260906021413 -17 216 3.2 9.7 0.00 0.10 0.10 1012.4
20260906021314 -17 217 3.2 9.7 0.00 0.10 0.10 1012.4
20260906021213 -17 206 3.2 9.7 0.00 0.10 0.10 1012.4
20260906021115 -17 162 3.2 9.7 0.00 0.10 0.10 1012.4
20260906021014 -17 158 3.2 9.7 0.00 0.10 0.10 1012.4
20260906020913 -17 159 3.2 9.7 0.00 0.10 0.10 1012.5
20260906020814 -17 146 3.2 11.3 0.00 0.10 0.10 1012.5
20260906020713 -17 146 3.2 11.3 0.00 0.10 0.10 1012.5
20260906020613 -17 223 3.2 11.3 0.00 0.10 0.10 1012.4
20260906020513 -17 223 3.2 11.3 0.00 0.10 0.10 1012.5
20260906020409 -17 223 3.2 11.3 0.00 0.10 0.10 1012.5
20260906020311 -17 223 3.2 11.3 0.00 0.10 0.10 1012.5
20260906020209 -17 223 3.2 11.3 0.00 0.10 0.10 1012.5
20260906020110 -17 223 3.2 11.3 0.00 0.10 0.10 1012.6
20260906020008 -17 223 3.2 11.3 0.00 0.10 0.10 1012.6
20260906015908 -17 223 3.2 11.3 0.00 0.10 0.10 1012.6
20260906015807 -17 209 3.2 8.0 0.00 0.10 0.10 1012.6
20260906015706 -17 208 3.2 8.0 0.00 0.10 0.10 1012.6
20260906015605 -17 192 3.2 8.0 0.00 0.10 0.10 1012.5
20260906015503 -17 192 3.2 8.0 0.00 0.10 0.10 1012.5
20260906015405 -17 178 3.2 8.0 0.00 0.10 0.10 1012.5
20260906015306 -17 175 3.2 8.0 0.00 0.10 0.10 1012.5
20260906015205 -17 175 3.2 8.0 0.00 0.10 0.10 1012.5
20260906015103 -17 223 3.2 8.0 0.00 0.10 0.10 1012.3
20260906015003 -17 200 3.2 9.7 0.00 0.10 0.10 1012.4
20260906014804 -17 151 3.2 9.7 0.00 0.10 0.10 1012.4
20260906014705 -17 226 1.6 9.7 0.00 0.10 0.10 1012.5
20260906014603 -17 171 1.6 9.7 0.00 0.10 0.10 1012.4
20260906014505 -17 217 1.6 9.7 0.00 0.10 0.10 1012.4
20260906014402 -17 217 1.6 9.7 0.00 0.10 0.10 1012.5
20260906014302 -17 217 3.2 9.7 0.00 0.10 0.10 1012.5
20260906014201 -17 217 3.2 9.7 0.00 0.10 0.10 1012.4
20260906014100 -17 217 3.2 9.7 0.00 0.10 0.10 1012.4
20260906014000 -17 217 3.2 9.7 0.00 0.10 0.10 1012.3
20260906013900 -17 217 3.2 9.7 0.00 0.10 0.10 1012.4
20260906013657 -17 217 4.8 9.7 0.00 0.10 0.10 1012.3
20260906013557 -17 217 4.8 9.7 0.00 0.10 0.10 1012.3
20260906013457 -17 217 4.8 9.7 0.00 0.10 0.10 1012.3
20260906013358 -17 217 4.8 9.7 0.00 0.10 0.10 1012.3
20260906013257 -17 75 4.8 9.7 0.00 0.10 0.10 1012.2
20260906013158 -17 214 4.8 9.7 0.00 0.10 0.10 1012.2
20260906013057 -17 214 3.2 9.7 0.00 0.10 0.10 1012.2
20260906012959 -17 213 3.2 9.7 0.00 0.10 0.10 1012.2
20260906012857 -17 177 3.2 9.7 0.00 0.10 0.10 1012.1
20260906012658 -17 161 3.2 11.3 0.00 0.10 0.10 1012.1
20260906012555 -17 188 3.2 11.3 0.00 0.10 0.10 1012.0
20260906012453 -17 191 3.2 11.3 0.00 0.10 0.10 1012.1
20260906012353 -17 119 3.2 11.3 0.00 0.10 0.10 1012.0
20260906012151 -17 166 3.2 11.3 0.00 0.10 0.10 1012.0
20260906012050 -17 236 1.6 14.5 0.00 0.10 0.10 1012.1
20260906011950 -17 237 3.2 14.5 0.00 0.10 0.10 1012.0
20260906011847 -17 239 3.2 14.5 0.00 0.10 0.10 1012.1
20260906011648 -17 309 3.2 16.1 0.00 0.10 0.10 1012.1
20260906011546 -17 182 3.2 16.1 0.00 0.10 0.10 1012.2
20260906011446 -17 182 3.2 16.1 0.00 0.10 0.10 1012.1
20260906011346 -17 148 3.2 16.1 0.00 0.10 0.10 1012.2
20260906011144 -17 127 3.2 16.1 0.00 0.10 0.10 1012.2
20260906011045 -17 138 3.2 16.1 0.03 0.10 0.10 1012.2
20260906010945 -17 138 3.2 16.1 0.03 0.10 0.10 1012.2
20260906010901 -17 155 3.2 16.1 0.03 0.10 0.10 1012.1
20260906010845 -17 155 1.6 16.1 0.03 0.10 0.10 1012.2
20260906010642 -17 142 1.6 12.9 0.03 0.10 0.10 1012.2
20260906010541 -17 186 1.6 12.9 0.03 0.10 0.10 1012.3
20260906010441 -17 187 3.2 12.9 0.03 0.10 0.10 1012.3
20260906010343 -17 188 3.2 12.9 0.03 0.10 0.10 1012.3
20260906010140 -17 117 1.6 11.3 0.03 0.10 0.10 1012.4
20260906010040 -17 149 3.2 8.0 0.03 0.10 0.10 1012.3
20260906005939 -17 149 3.2 8.0 0.03 0.10 0.10 1012.2
20260906005838 -17 149 3.2 8.0 0.03 0.10 0.10 1012.0
20260906005636 -17 150 3.2 8.0 0.03 0.10 0.10 1011.9
20260906005536 -17 147 3.2 16.1 0.03 0.10 0.10 1011.8
20260906005435 -17 174 3.2 16.1 0.03 0.10 0.10 1011.9
20260906005335 -17 175 3.2 16.1 0.03 0.10 0.10 1011.9
20260906005233 -17 186 1.6 16.1 0.03 0.10 0.10 1011.9
20260906005133 -17 186 1.6 16.1 0.03 0.10 0.10 1012.0
20260906005033 -17 182 1.6 16.1 0.05 0.10 0.10 1012.0
20260906004934 -17 146 1.6 16.1 0.05 0.10 0.10 1012.0
20260906004833 -17 144 1.6 16.1 0.05 0.10 0.10 1011.8
20260906004735 -17 144 0.0 16.1 0.05 0.10 0.10 1011.9
20260906004631 -17 136 0.0 16.1 0.05 0.10 0.10 1011.8
20260906004532 -17 199 0.0 4.8 0.05 0.10 0.10 1011.9
20260906004432 -17 205 0.0 3.2 0.05 0.10 0.10 1011.9
20260906004332 -17 205 0.0 3.2 0.05 0.10 0.10 1011.8
20260906004231 -17 205 1.6 8.0 0.05 0.10 0.10 1011.8
20260906004130 -17 205 1.6 9.7 0.05 0.10 0.10 1011.8
20260906004030 -17 205 3.2 9.7 0.05 0.10 0.10 1011.8
20260906003927 -17 205 3.2 9.7 0.05 0.10 0.10 1011.7
20260906003828 -17 205 3.2 9.7 0.05 0.10 0.10 1011.6
20260906003728 -17 205 3.2 9.7 0.05 0.10 0.10 1011.5
20260906003625 -17 205 3.2 9.7 0.05 0.10 0.10 1011.5
20260906003526 -17 205 3.2 9.7 0.05 0.10 0.10 1011.6
20260906003423 -17 205 3.2 9.7 0.05 0.10 0.10 1011.8
20260906003324 -17 205 4.8 9.7 0.05 0.10 0.10 1012.0
20260906003225 -17 205 3.2 9.7 0.05 0.10 0.10 1012.1
20260906003122 -17 204 3.2 8.0 0.05 0.10 0.10 1012.1
20260906003019 -17 166 1.6 8.0 0.05 0.10 0.10 1012.1
20260906002919 -17 154 1.6 8.0 0.05 0.10 0.10 1012.0
20260906002821 -17 154 1.6 8.0 0.05 0.10 0.10 1012.1
20260906002720 -17 154 1.6 8.0 0.05 0.10 0.10 1012.1
20260906002618 -17 154 1.6 6.4 0.08 0.10 0.10 1012.0
20260906002518 -17 136 1.6 6.4 0.08 0.10 0.10 1012.0
20260906002417 -17 126 0.0 4.8 0.08 0.10 0.10 1011.9
20260906002317 -17 78 0.0 3.2 0.08 0.10 0.10 1011.9
20260906002215 -17 77 0.0 1.6 0.08 0.10 0.10 1011.9
20260906002115 -17 77 0.0 1.6 0.08 0.10 0.10 1011.8
20260906002016 -17 77 0.0 1.6 0.08 0.10 0.10 1011.8
20260906001913 -17 77 0.0 1.6 0.08 0.10 0.10 1011.6
20260906001814 -17 77 0.0 1.6 0.08 0.10 0.10 1011.6
20260906001711 -17 77 0.0 4.8 0.08 0.10 0.10 1011.6
20260906001612 -17 77 0.0 4.8 0.08 0.10 0.10 1011.6
20260906001511 -17 77 0.0 4.8 0.08 0.10 0.10 1011.6
20260906001412 -17 77 1.6 6.4 0.08 0.10 0.10 1011.4
20260906001346 -17 77 1.6 6.4 0.10 0.10 0.10 1011.3
20260906001211 -17 77 1.6 6.4 0.10 0.10 0.10 1011.2
20260906001110 -17 77 1.6 6.4 0.08 0.08 0.08 1011.1
20260906001012 -17 77 1.6 6.4 0.08 0.08 0.08 1011.0
20260906000909 -17 77 1.6 6.4 0.08 0.08 0.08 1011.0
20260906000807 -17 77 1.6 6.4 0.08 0.08 0.08 1011.0
20260906000709 -17 98 1.6 6.4 0.08 0.08 0.08 1011.0
20260906000607 -17 98 3.2 6.4 0.08 0.08 0.08 1011.0
20260906000508 -17 98 3.2 6.4 0.08 0.08 0.08 1010.9
20260906000407 -17 88 1.6 9.7 0.08 0.08 0.08 1010.9
20260906000307 -17 97 3.2 9.7 0.08 0.08 0.08 1010.8
20260906000208 -17 96 3.2 9.7 0.08 0.08 0.08 1010.9
20260906000106 -17 77 3.2 9.7 0.08 0.08 0.08 1010.9
20260906000008 -17 102 1.6 14.5 0.08 0.08 0.08 1010.9
20260905235907 -17 104 1.6 14.5 0.08 0.08 0.08 1010.9
20260905235808 -17 104 1.6 14.5 0.08 0.08 0.08 1010.9
20260905235706 -17 104 1.6 14.5 0.08 0.08 0.08 1011.1
20260905235604 -17 103 1.6 14.5 0.08 0.08 0.08 1011.0
20260905235504 -17 105 1.6 14.5 0.08 0.08 0.08 1011.1
20260905235402 -17 99 1.6 14.5 0.08 0.08 0.08 1011.4
20260905235306 -17 98 1.6 14.5 0.08 0.08 0.08 1011.5
20260905235203 -17 88 3.2 14.5 0.08 0.08 0.08 1011.5
20260905235104 -17 81 3.2 14.5 0.08 0.08 0.08 1011.6
20260905235003 -17 140 3.2 14.5 0.05 0.05 0.08 1011.6
20260905234903 -17 140 3.2 14.5 0.05 0.05 0.05 1011.7
20260905234800 -17 140 3.2 14.5 0.05 0.05 0.05 1011.6
20260905234701 -17 103 4.8 14.5 0.05 0.05 0.05 1011.6
20260905234601 -17 103 4.8 16.1 0.05 0.05 0.05 1011.7
20260905234502 -17 102 4.8 16.1 0.05 0.05 0.05 1011.6
20260905234403 -17 100 4.8 16.1 0.05 0.05 0.05 1011.6
20260905234302 -17 85 4.8 16.1 0.05 0.05 0.05 1011.6
20260905234202 -17 163 4.8 16.1 0.05 0.05 0.05 1011.7
20260905234059 -17 153 4.8 16.1 0.05 0.05 0.05 1011.6
20260905233958 -17 166 4.8 16.1 0.05 0.05 0.05 1011.6
20260905233857 -17 123 4.8 16.1 0.05 0.05 0.05 1011.7
20260905233841 -17 146 4.8 16.1 0.05 0.05 0.05 1011.7
20260905233656 -17 121 4.8 16.1 0.05 0.05 0.05 1011.7
20260905233555 -17 158 4.8 14.5 0.05 0.05 0.05 1011.6
20260905233453 -17 110 4.8 14.5 0.05 0.05 0.05 1011.7
20260905233353 -17 150 4.8 14.5 0.05 0.05 0.05 1011.6
20260905233254 -17 168 4.8 12.9 0.05 0.05 0.05 1011.7
20260905233154 -17 170 4.8 12.9 0.05 0.05 0.05 1011.7
20260905233053 -17 163 4.8 25.7 0.05 0.05 0.05 1011.8
20260905232953 -17 136 4.8 25.7 0.05 0.05 0.05 1011.8
20260905232854 -17 136 6.4 25.7 0.05 0.05 0.05 1011.9
20260905232651 -17 133 6.4 25.7 0.03 0.03 0.05 1012.0
20260905232549 -17 69 6.4 25.7 0.03 0.03 0.03 1012.0
20260905232449 -17 176 6.4 25.7 0.03 0.03 0.03 1012.1
20260905232348 -17 176 6.4 25.7 0.03 0.03 0.03 1011.9
20260905232247 -17 142 6.4 25.7 0.03 0.03 0.03 1012.0
20260905232145 -17 142 6.4 25.7 0.03 0.03 0.03 1012.0
20260905232046 -17 167 6.4 19.3 0.03 0.03 0.03 1012.2
20260905231947 -17 161 6.4 19.3 0.03 0.03 0.03 1012.2
20260905231845 -17 132 6.4 19.3 0.03 0.03 0.03 1012.1
20260905231745 -17 161 4.8 14.5 0.03 0.03 0.03 1012.0
20260905231646 -17 167 4.8 14.5 0.03 0.03 0.03 1012.0
20260905231546 -17 169 4.8 14.5 0.03 0.03 0.03 1011.9
20260905231447 -17 140 4.8 14.5 0.03 0.03 0.03 1011.9
20260905231345 -17 141 6.4 16.1 0.00 0.00 0.00 1011.8
20260905231246 -17 137 6.4 16.1 0.00 0.00 0.00 1011.8
20260905231146 -17 115 4.8 16.1 0.00 0.00 0.00 1011.6
20260905231044 -17 82 6.4 16.1 0.00 0.00 0.00 1011.6
20260905230945 -17 42 6.4 29.0 0.00 0.00 0.00 1011.5
20260905230845 -17 125 8.0 29.0 0.00 0.00 0.00 1011.5
20260905230644 -17 80 9.7 38.6 0.00 0.00 0.00 1011.4
20260905230545 -17 346 9.7 38.6 0.00 0.00 0.00 1011.3
20260905230445 -17 355 11.3 38.6 0.00 0.00 0.00 1011.5
20260905230346 -17 26 11.3 38.6 0.00 0.00 0.00 1011.5
20260905230246 -17 65 12.9 38.6 0.00 0.00 0.00 1011.5
20260905230145 -17 76 12.9 38.6 0.00 0.00 0.00 1011.5
20260905230046 -17 30 12.9 38.6 0.00 0.00 0.00 1011.5
20260905225945 -17 267 14.5 38.6 0.00 0.00 0.00 1011.4
20260905225845 -17 329 14.5 38.6 0.00 0.00 0.00 1011.5
20260905225745 -17 331 14.5 30.6 0.00 0.00 0.00 1011.3
20260905225646 -17 44 14.5 30.6 0.00 0.00 0.00 1011.2
20260905225545 -17 338 14.5 30.6 0.00 0.00 0.00 1011.3
20260905225445 -17 36 16.1 35.4 0.00 0.00 0.00 1011.4
20260905225345 -17 292 17.7 40.2 0.00 0.00 0.00 1011.2
20260905225246 -17 329 16.1 40.2 0.00 0.00 0.00 1010.9
20260905225146 -17 313 17.7 40.2 0.00 0.00 0.00 1010.7
20260905225044 -17 308 17.7 40.2 0.00 0.00 0.00 1010.5
20260905224946 -17 267 19.3 41.8 0.00 0.00 0.00 1010.3
20260905224855 -17 299 17.7 41.8 0.00 0.00 0.00 1010.2
20260905224838 -17 5 17.7 41.8 0.00 0.00 0.00 1010.0
20260905224645 -17 326 17.7 41.8 0.00 0.00 0.00 1010.0
20260905224545 -17 317 17.7 41.8 0.00 0.00 0.00 1009.7
20260905224446 -17 306 17.7 41.8 0.00 0.00 0.00 1009.7
20260905224355 -17 328 16.1 41.8 0.00 0.00 0.00 1009.7
20260905224338 -17 271 14.5 41.8 0.00 0.00 0.00 1009.8
20260905224146 -17 345 12.9 41.8 0.00 0.00 0.00 1009.9
20260905224045 -17 281 11.3 41.8 0.00 0.00 0.00 1010.1
20260905223945 -17 313 9.7 35.4 0.00 0.00 0.00 1010.1
20260905223845 -17 270 8.0 33.8 0.00 0.00 0.00 1010.1
20260905223746 -17 274 8.0 33.8 0.00 0.00 0.00 1010.1
20260905223646 -17 258 6.4 33.8 0.00 0.00 0.00 1010.1
20260905223545 -17 299 4.8 33.8 0.00 0.00 0.00 1010.2
20260905223444 -17 252 4.8 24.1 0.00 0.00 0.00 1010.0
20260905223345 -17 296 4.8 19.3 0.00 0.00 0.00 1009.8
20260905223247 -17 326 4.8 8.0 0.00 0.00 0.00 1009.7
20260905223146 -17 223 4.8 8.0 0.00 0.00 0.00 1009.5
20260905223045 -17 224 4.8 8.0 0.00 0.00 0.00 1009.4
20260905222945 -17 224 4.8 8.0 0.00 0.00 0.00 1009.4
20260905222846 -17 224 4.8 9.7 0.00 0.00 0.00 1009.4
20260905222646 -17 224 6.4 9.7 0.00 0.00 0.00 1009.3
20260905222545 -17 223 6.4 11.3 0.00 0.00 0.00 1009.3
20260905222446 -17 223 6.4 11.3 0.00 0.00 0.00 1009.2
20260905222345 -17 223 6.4 11.3 0.00 0.00 0.00 1009.2
20260905222144 -17 224 6.4 11.3 0.00 0.00 0.00 1009.2
20260905222046 -17 223 6.4 11.3 0.00 0.00 0.00 1009.2
20260905221945 -17 223 6.4 12.9 0.00 0.00 0.00 1009.2
20260905221846 -17 224 6.4 12.9 0.00 0.00 0.00 1009.1
20260905221746 -17 225 8.0 12.9 0.00 0.00 0.00 1009.1
20260905221645 -17 226 8.0 12.9 0.00 0.00 0.00 1009.0
20260905221545 -17 223 6.4 12.9 0.00 0.00 0.00 1009.0
20260905221446 -17 224 6.4 12.9 0.00 0.00 0.00 1009.0
20260905221353 -17 224 6.4 12.9 0.00 0.00 0.00 1009.1
20260905221338 -17 224 6.4 12.9 0.00 0.00 0.00 1009.2
20260905221146 -17 221 8.0 12.9 0.00 0.00 0.00 1009.2
20260905221045 -17 227 6.4 12.9 0.00 0.00 0.00 1009.2
20260905220945 -17 224 6.4 11.3 0.00 0.00 0.00 1009.2
20260905220852 -17 224 6.4 11.3 0.00 0.00 0.00 1009.3
20260905220837 -17 224 6.4 12.9 0.00 0.00 0.00 1009.2
20260905220646 -17 222 8.0 17.7 0.00 0.00 0.00 1009.2
20260905220544 -17 221 8.0 17.7 0.00 0.00 0.00 1009.2
20260905220447 -17 221 8.0 17.7 0.00 0.00 0.00 1009.2
20260905220345 -17 221 8.0 17.7 0.00 0.00 0.00 1009.3
20260905220146 -17 224 8.0 17.7 0.00 0.00 0.00 1009.5
20260905220045 -17 226 8.0 17.7 0.00 0.00 0.00 1009.5
20260905215946 -17 223 8.0 17.7 0.00 0.00 0.00 1009.6
20260905215852 -17 227 8.0 17.7 0.00 0.00 0.00 1009.8
20260905215837 -17 218 8.0 17.7 0.00 0.00 0.00 1009.9
20260905215646 -17 221 8.0 16.1 0.00 0.00 0.00 1009.9
20260905215544 -17 221 6.4 16.1 0.00 0.00 0.00 1010.0
20260905215446 -17 223 6.4 12.9 0.00 0.00 0.00 1010.0
20260905215345 -17 227 4.8 9.7 0.00 0.00 0.00 1010.0
20260905215246 -17 230 6.4 11.3 0.00 0.00 0.00 1010.0
20260905215146 -17 224 4.8 11.3 0.00 0.00 0.00 1009.9
20260905215044 -17 225 6.4 11.3 0.00 0.00 0.00 1009.8
20260905214945 -17 225 6.4 11.3 0.00 0.00 0.00 1009.9
20260905214845 -17 223 6.4 14.5 0.00 0.00 0.00 1009.9
20260905214645 -17 227 6.4 14.5 0.00 0.00 0.00 1009.8
20260905214546 -17 219 6.4 14.5 0.00 0.00 0.00 1009.8
20260905214446 -17 219 6.4 14.5 0.00 0.00 0.00 1009.7
20260905214344 -17 219 6.4 14.5 0.00 0.00 0.00 1009.8
20260905214145 -17 230 6.4 14.5 0.00 0.00 0.00 1009.9
20260905214046 -17 227 4.8 14.5 0.00 0.00 0.00 1009.8
20260905213944 -17 228 4.8 14.5 0.00 0.00 0.00 1009.8
20260905213845 -17 227 4.8 9.7 0.00 0.00 0.00 1009.9
20260905213645 -17 220 4.8 9.7 0.00 0.00 0.00 1009.8
20260905213544 -17 220 4.8 9.7 0.00 0.00 0.00 1009.7
20260905213445 -17 220 4.8 9.7 0.00 0.00 0.00 1009.6
20260905213345 -17 219 4.8 9.7 0.00 0.00 0.00 1009.6
20260905213145 -17 223 3.2 9.7 0.00 0.00 0.00 1009.5
20260905213046 -17 221 4.8 9.7 0.00 0.00 0.00 1009.5
20260905212947 -17 223 3.2 9.7 0.00 0.00 0.00 1009.5
20260905212851 -17 223 4.8 8.0 0.00 0.00 0.00 1009.4
20260905212836 -17 223 4.8 8.0 0.00 0.00 0.00 1009.3
20260905212644 -17 223 4.8 9.7 0.00 0.00 0.00 1009.3
20260905212544 -17 223 4.8 9.7 0.00 0.00 0.00 1009.3
20260905212443 -17 223 4.8 9.7 0.00 0.00 0.00 1009.4
20260905212344 -17 223 6.4 16.1 0.00 0.00 0.00 1009.3
20260905212142 -17 223 8.0 20.9 0.00 0.00 0.00 1009.4
20260905212041 -17 223 8.0 20.9 0.00 0.00 0.00 1009.4
20260905211941 -17 223 8.0 20.9 0.00 0.00 0.00 1009.4
20260905211840 -17 223 8.0 20.9 0.00 0.00 0.00 1009.4
20260905211738 -17 222 8.0 20.9 0.00 0.00 0.00 1009.4
20260905211639 -17 223 8.0 20.9 0.00 0.00 0.00 1009.4
20260905211538 -17 223 6.4 20.9 0.00 0.00 0.00 1009.4
20260905211436 -17 222 6.4 20.9 0.00 0.00 0.00 1009.5
20260905211337 -17 225 6.4 20.9 0.00 0.00 0.00 1009.5
20260905211237 -17 225 6.4 12.9 0.00 0.00 0.00 1009.5
20260905211138 -17 225 6.4 12.9 0.00 0.00 0.00 1009.5
20260905211037 -17 223 6.4 11.3 0.00 0.00 0.00 1009.5
20260905210936 -17 223 6.4 11.3 0.00 0.00 0.00 1009.4
20260905210835 -17 222 6.4 11.3 0.00 0.00 0.00 1009.4
20260905210735 -17 221 6.4 11.3 0.00 0.00 0.00 1009.3
20260905210633 -17 221 6.4 11.3 0.00 0.00 0.00 1009.3
20260905210534 -17 221 6.4 11.3 0.00 0.00 0.00 1009.3
20260905210432 -17 221 8.0 14.5 0.00 0.00 0.00 1009.1
20260905210333 -17 221 8.0 17.7 0.00 0.00 0.00 1009.2
20260905210132 -17 222 8.0 17.7 0.00 0.00 0.00 1009.3
20260905210032 -17 223 9.7 17.7 0.00 0.00 0.00 1009.4
20260905205931 -17 221 9.7 17.7 0.00 0.00 0.00 1009.3
20260905205829 -17 223 9.7 17.7 0.00 0.00 0.00 1009.4
20260905205626 -17 225 9.7 17.7 0.00 0.00 0.00 1009.4
20260905205527 -17 225 9.7 17.7 0.00 0.00 0.00 1009.3
20260905205427 -17 224 9.7 17.7 0.00 0.00 0.00 1009.4
20260905205325 -17 221 9.7 17.7 0.00 0.00 0.00 1009.3
20260905205124 -17 225 9.7 17.7 0.00 0.00 0.00 1009.3
20260905205026 -17 218 9.7 17.7 0.00 0.00 0.00 1009.2
20260905204925 -17 222 8.0 17.7 0.00 0.00 0.00 1009.1
20260905204825 -17 219 8.0 14.5 0.00 0.00 0.00 1009.1
20260905204626 -17 225 8.0 14.5 0.00 0.00 0.00 1009.0
20260905204524 -17 225 8.0 12.9 0.00 0.00 0.00 1009.0
20260905204426 -17 226 6.4 12.9 0.00 0.00 0.00 1009.1
20260905204324 -17 229 6.4 12.9 0.00 0.00 0.00 1009.1
20260905204124 -17 217 8.0 12.9 0.00 0.00 0.00 1009.0
20260905204022 -17 217 8.0 12.9 0.00 0.00 0.00 1009.0
20260905203922 -17 214 8.0 12.9 0.00 0.00 0.00 1009.0
20260905203823 -17 217 8.0 12.9 0.00 0.00 0.00 1009.0
20260905203720 -17 217 8.0 12.9 0.00 0.00 0.00 1009.0
20260905203622 -17 225 6.4 12.9 0.00 0.00 0.00 1009.0
20260905203522 -17 215 6.4 12.9 0.00 0.00 0.00 1009.0
20260905203420 -17 223 6.4 12.9 0.00 0.00 0.00 1009.0
20260905203321 -17 227 6.4 12.9 0.00 0.00 0.00 1009.0
20260905203221 -17 227 6.4 12.9 0.00 0.00 0.00 1008.9
20260905203120 -17 224 4.8 12.9 0.00 0.00 0.00 1008.9
20260905203021 -17 210 4.8 12.9 0.00 0.00 0.00 1008.9
20260905202919 -17 220 4.8 11.3 0.00 0.00 0.00 1009.0
20260905202818 -17 219 4.8 9.7 0.00 0.00 0.00 1009.0
20260905202719 -17 209 3.2 9.7 0.00 0.00 0.00 1008.9
20260905202618 -17 225 3.2 9.7 0.00 0.00 0.00 1008.9
20260905202519 -17 219 3.2 9.7 0.00 0.00 0.00 1009.0
20260905202419 -17 219 4.8 9.7 0.00 0.00 0.00 1008.9
20260905202318 -17 221 4.8 9.7 0.00 0.00 0.00 1009.0
20260905202218 -17 221 4.8 9.7 0.00 0.00 0.00 1009.0
20260905202117 -17 223 4.8 9.7 0.00 0.00 0.00 1009.0
20260905202017 -17 223 4.8 12.9 0.00 0.00 0.00 1009.1
20260905201917 -17 223 4.8 12.9 0.00 0.00 0.00 1009.0
20260905201817 -17 223 4.8 12.9 0.00 0.00 0.00 1009.1
20260905201716 -17 223 4.8 12.9 0.00 0.00 0.00 1009.0
20260905201614 -17 223 4.8 12.9 0.00 0.00 0.00 1009.2
20260905201513 -17 223 4.8 12.9 0.00 0.00 0.00 1009.2
20260905201413 -17 223 4.8 12.9 0.00 0.00 0.00 1009.3
20260905201312 -17 221 4.8 12.9 0.00 0.00 0.00 1009.3
20260905201210 -17 225 4.8 12.9 0.00 0.00 0.00 1009.3
20260905201112 -17 225 4.8 12.9 0.00 0.00 0.00 1009.3
20260905201008 -17 225 4.8 11.3 0.00 0.00 0.00 1009.3
20260905200908 -17 223 4.8 11.3 0.00 0.00 0.00 1009.4
20260905200807 -17 225 4.8 11.3 0.00 0.00 0.00 1009.4
20260905200707 -17 226 4.8 9.7 0.00 0.00 0.00 1009.4
20260905200607 -17 226 4.8 9.7 0.00 0.00 0.00 1009.3
20260905200506 -17 226 4.8 9.7 0.00 0.00 0.00 1009.4
20260905200407 -17 226 4.8 9.7 0.00 0.00 0.00 1009.4
20260905200306 -17 226 4.8 9.7 0.00 0.00 0.00 1009.4
20260905200207 -17 226 4.8 9.7 0.00 0.00 0.00 1009.5
20260905200107 -17 225 6.4 9.7 0.00 0.00 0.00 1009.5
20260905195907 -17 221 4.8 11.3 0.00 0.00 0.00 1009.4
20260905195837 -17 220 4.8 11.3 0.00 0.00 0.00 1009.4
20260905195707 -17 220 4.8 11.3 0.00 0.00 0.00 1009.5
20260905195605 -17 223 4.8 11.3 0.00 0.00 0.00 1009.5
20260905195504 -17 225 4.8 11.3 0.00 0.00 0.00 1009.6
20260905195405 -17 225 4.8 11.3 0.00 0.00 0.00 1009.6
20260905195306 -17 224 4.8 11.3 0.00 0.00 0.00 1009.5
20260905195205 -17 225 4.8 11.3 0.00 0.00 0.00 1009.6
20260905195106 -17 225 4.8 11.3 0.00 0.00 0.00 1009.5
20260905195004 -17 225 4.8 11.3 0.00 0.00 0.00 1009.6
20260905194906 -17 202 4.8 9.7 0.00 0.00 0.00 1009.6
20260905194804 -17 205 4.8 9.7 0.00 0.00 0.00 1009.6
20260905194704 -17 209 4.8 8.0 0.00 0.00 0.00 1009.6
20260905194605 -17 136 4.8 8.0 0.00 0.00 0.00 1009.7
20260905194505 -17 217 4.8 8.0 0.00 0.00 0.00 1009.6
20260905194405 -17 217 3.2 8.0 0.00 0.00 0.00 1009.6
20260905194303 -17 217 4.8 8.0 0.00 0.00 0.00 1009.7
20260905194204 -17 217 4.8 8.0 0.00 0.00 0.00 1009.7
20260905194100 -17 217 4.8 8.0 0.00 0.00 0.00 1009.7
20260905194001 -17 217 4.8 8.0 0.00 0.00 0.00 1009.7
20260905193900 -17 216 4.8 8.0 0.00 0.00 0.00 1009.7
20260905193758 -17 215 4.8 8.0 0.00 0.00 0.00 1009.6
20260905193658 -17 215 4.8 11.3 0.00 0.00 0.00 1009.6
20260905193557 -17 214 4.8 11.3 0.00 0.00 0.00 1009.5
20260905193457 -17 214 3.2 11.3 0.00 0.00 0.00 1009.6
20260905193357 -17 140 3.2 11.3 0.00 0.00 0.00 1009.5
20260905193256 -17 136 3.2 11.3 0.00 0.00 0.00 1009.5
20260905193152 -17 121 3.2 11.3 0.00 0.00 0.00 1009.6
20260905193054 -17 105 3.2 11.3 0.00 0.00 0.00 1009.6
20260905192953 -17 155 3.2 11.3 0.00 0.00 0.00 1009.6
20260905192853 -17 219 3.2 11.3 0.00 0.00 0.00 1009.6
20260905192750 -17 219 3.2 11.3 0.00 0.00 0.00 1009.6
20260905192650 -17 161 3.2 11.3 0.00 0.00 0.00 1009.7
20260905192550 -17 188 3.2 11.3 0.00 0.00 0.00 1009.6
20260905192449 -17 188 3.2 11.3 0.00 0.00 0.00 1009.7
20260905192347 -17 188 3.2 11.3 0.00 0.00 0.00 1009.7
20260905192246 -17 188 3.2 11.3 0.00 0.00 0.00 1009.7
20260905192146 -17 189 3.2 11.3 0.00 0.00 0.00 1009.7
20260905192048 -17 153 4.8 11.3 0.00 0.00 0.00 1009.7
20260905191948 -17 153 3.2 11.3 0.00 0.00 0.00 1009.8
20260905191847 -17 152 4.8 8.0 0.00 0.00 0.00 1009.8
20260905191747 -17 158 4.8 8.0 0.00 0.00 0.00 1009.8
20260905191648 -17 206 4.8 8.0 0.00 0.00 0.00 1009.8
20260905191547 -17 206 3.2 8.0 0.00 0.00 0.00 1009.9
20260905191448 -17 205 3.2 8.0 0.00 0.00 0.00 1009.9
20260905191348 -17 205 3.2 8.0 0.00 0.00 0.00 1010.0
20260905191246 -17 169 3.2 8.0 0.00 0.00 0.00 1010.0
20260905191147 -17 168 3.2 9.7 0.00 0.00 0.00 1010.0
20260905191044 -17 168 3.2 9.7 0.00 0.00 0.00 1010.1
20260905190944 -17 231 3.2 9.7 0.00 0.00 0.00 1010.0
20260905190843 -17 234 3.2 9.7 0.00 0.00 0.00 1010.1
20260905190643 -17 239 3.2 9.7 0.00 0.00 0.00 1010.2
20260905190542 -17 239 3.2 9.7 0.00 0.00 0.00 1010.2
20260905190440 -17 265 3.2 9.7 0.00 0.00 0.00 1010.2
20260905190338 -17 304 3.2 16.1 0.00 0.00 0.00 1010.2
20260905190139 -17 232 4.8 16.1 0.00 0.00 0.00 1010.4
20260905190036 -17 231 4.8 16.1 0.00 0.00 0.00 1010.4
20260905185937 -17 232 4.8 16.1 0.00 0.00 0.00 1010.4
20260905185836 -17 234 4.8 16.1 0.00 0.00 0.00 1010.4
20260905185738 -17 210 4.8 16.1 0.00 0.00 0.00 1010.4
20260905185638 -17 338 4.8 16.1 0.00 0.00 0.00 1010.4
20260905185537 -17 261 4.8 16.1 0.00 0.00 0.00 1010.4
20260905185436 -17 261 4.8 16.1 0.00 0.00 0.00 1010.5
20260905185338 -17 302 3.2 14.5 0.00 0.00 0.00 1010.5
20260905185236 -17 226 3.2 11.3 0.00 0.00 0.00 1010.4
20260905185137 -17 232 3.2 8.0 0.00 0.00 0.00 1010.4
20260905185037 -17 299 3.2 6.4 0.00 0.00 0.00 1010.5
20260905184937 -17 309 3.2 6.4 0.00 0.00 0.00 1010.5
20260905184836 -17 309 3.2 9.7 0.00 0.00 0.00 1010.5
20260905184634 -17 266 3.2 12.9 0.00 0.00 0.00 1010.5
20260905184532 -17 265 3.2 12.9 0.00 0.00 0.00 1010.5
20260905184433 -17 265 3.2 12.9 0.00 0.00 0.00 1010.6
20260905184331 -17 268 3.2 12.9 0.00 0.00 0.00 1010.6
20260905184230 -17 286 4.8 12.9 0.00 0.00 0.00 1010.5
20260905184131 -17 308 4.8 12.9 0.00 0.00 0.00 1010.6
20260905184032 -17 291 4.8 12.9 0.00 0.00 0.00 1010.6
20260905183930 -17 311 4.8 12.9 0.00 0.00 0.00 1010.6
20260905183831 -17 327 4.8 12.9 0.00 0.00 0.00 1010.6
20260905183631 -17 250 4.8 8.0 0.00 0.00 0.00 1010.5
20260905183531 -17 251 4.8 9.7 0.00 0.00 0.00 1010.6
20260905183431 -17 326 4.8 9.7 0.00 0.00 0.00 1010.6
20260905183330 -17 323 4.8 9.7 0.00 0.00 0.00 1010.6
20260905183231 -17 336 3.2 9.7 0.00 0.00 0.00 1010.5
20260905183128 -17 350 3.2 9.7 0.00 0.00 0.00 1010.6
20260905183029 -17 355 3.2 9.7 0.00 0.00 0.00 1010.6
20260905182927 -17 254 3.2 16.1 0.00 0.00 0.00 1010.6
20260905182827 -17 275 3.2 16.1 0.00 0.00 0.00 1010.7
20260905182624 -17 272 4.8 16.1 0.00 0.00 0.00 1010.7
20260905182525 -17 232 3.2 16.1 0.00 0.00 0.00 1010.7
20260905182424 -17 230 4.8 16.1 0.00 0.00 0.00 1010.7
20260905182325 -17 294 4.8 16.1 0.00 0.00 0.00 1010.7
20260905182125 -17 307 4.8 17.7 0.00 0.00 0.00 1010.8
20260905182025 -17 350 4.8 17.7 0.00 0.00 0.00 1010.8
20260905181924 -17 228 6.4 17.7 0.00 0.00 0.00 1010.8
20260905181824 -17 232 4.8 17.7 0.00 0.00 0.00 1010.8
20260905181625 -17 268 6.4 17.7 0.00 0.00 0.00 1010.8
20260905181524 -17 269 6.4 17.7 0.00 0.00 0.00 1010.9
20260905181424 -17 338 6.4 17.7 0.00 0.00 0.00 1010.9
20260905181321 -17 328 4.8 17.7 0.00 0.00 0.00 1010.9
20260905181122 -17 322 4.8 14.5 0.00 0.00 0.00 1010.9
20260905181019 -17 330 4.8 14.5 0.00 0.00 0.00 1010.9
20260905180918 -17 338 3.2 14.5 0.00 0.00 0.00 1010.9
20260905180839 -17 223 3.2 11.3 0.00 0.00 0.00 1011.0
20260905180823 -17 248 3.2 8.0 0.00 0.00 0.00 1010.9
20260905180614 -17 294 3.2 8.0 0.00 0.00 0.00 1011.0
20260905180515 -17 295 3.2 8.0 0.00 0.00 0.00 1011.0
20260905180414 -17 319 3.2 8.0 0.00 0.00 0.00 1011.0
20260905180315 -17 225 3.2 8.0 0.00 0.00 0.00 1011.0
20260905180213 -17 223 3.2 8.0 0.00 0.00 0.00 1011.0
20260905180114 -17 223 3.2 8.0 0.00 0.00 0.00 1011.1
20260905180010 -17 223 3.2 8.0 0.00 0.00 0.00 1011.1
20260905175910 -17 223 3.2 8.0 0.00 0.00 0.00 1011.1
20260905175809 -17 221 3.2 8.0 0.00 0.00 0.00 1011.1
20260905175708 -17 219 3.2 8.0 0.00 0.00 0.00 1011.0
20260905175608 -17 220 3.2 8.0 0.00 0.00 0.00 1011.1
20260905175509 -17 220 4.8 11.3 0.00 0.00 0.00 1011.1
20260905175408 -17 219 4.8 11.3 0.00 0.00 0.00 1011.1
20260905175309 -17 220 4.8 11.3 0.00 0.00 0.00 1011.1
20260905175208 -17 221 4.8 11.3 0.00 0.00 0.00 1011.2
20260905175108 -17 219 4.8 11.3 0.00 0.00 0.00 1011.2
20260905175008 -17 229 4.8 11.3 0.00 0.00 0.00 1011.2
20260905174909 -17 230 4.8 11.3 0.00 0.00 0.00 1011.1
20260905174810 -17 229 4.8 11.3 0.00 0.00 0.00 1011.3
20260905174708 -17 229 4.8 11.3 0.00 0.00 0.00 1011.2
20260905174610 -17 230 4.8 11.3 0.00 0.00 0.00 1011.2
20260905174507 -17 229 4.8 11.3 0.00 0.00 0.00 1011.3
20260905174406 -17 228 4.8 11.3 0.00 0.00 0.00 1011.3
20260905174305 -17 224 4.8 11.3 0.00 0.00 0.00 1011.3
20260905174206 -17 224 4.8 11.3 0.00 0.00 0.00 1011.3
20260905174104 -17 226 4.8 12.9 0.00 0.00 0.00 1011.4
20260905174003 -17 224 4.8 14.5 0.00 0.00 0.00 1011.4
20260905173900 -17 224 6.4 14.5 0.00 0.00 0.00 1011.3
20260905173801 -17 224 6.4 14.5 0.00 0.00 0.00 1011.5
20260905173658 -17 223 6.4 14.5 0.00 0.00 0.00 1011.4
20260905173559 -17 226 6.4 14.5 0.00 0.00 0.00 1011.4
20260905173457 -17 226 6.4 14.5 0.00 0.00 0.00 1011.4
20260905173357 -17 225 6.4 16.1 0.00 0.00 0.00 1011.4
20260905173257 -17 226 6.4 16.1 0.00 0.00 0.00 1011.4
20260905173157 -17 225 6.4 16.1 0.00 0.00 0.00 1011.4
20260905173056 -17 226 6.4 16.1 0.00 0.00 0.00 1011.4
20260905172958 -17 232 6.4 16.1 0.00 0.00 0.00 1011.5
20260905172854 -17 232 6.4 16.1 0.00 0.00 0.00 1011.4
20260905172754 -17 288 6.4 16.1 0.00 0.00 0.00 1011.5
20260905172652 -17 229 6.4 16.1 0.00 0.00 0.00 1011.4
20260905172553 -17 336 4.8 16.1 0.00 0.00 0.00 1011.4
20260905172454 -17 313 6.4 16.1 0.00 0.00 0.00 1011.5
20260905172352 -17 335 4.8 14.5 0.00 0.00 0.00 1011.5
20260905172252 -17 308 4.8 12.9 0.00 0.00 0.00 1011.6
20260905172152 -17 318 4.8 12.9 0.00 0.00 0.00 1011.5
20260905172054 -17 306 4.8 12.9 0.00 0.00 0.00 1011.6
20260905171952 -17 322 6.4 16.1 0.00 0.00 0.00 1011.6
20260905171852 -17 322 6.4 16.1 0.00 0.00 0.00 1011.6
20260905171753 -17 314 6.4 16.1 0.00 0.00 0.00 1011.6
20260905171653 -17 314 6.4 16.1 0.00 0.00 0.00 1011.6
20260905171554 -17 325 6.4 16.1 0.00 0.00 0.00 1011.6
20260905171452 -17 219 4.8 16.1 0.00 0.00 0.00 1011.6
20260905171354 -17 229 4.8 16.1 0.00 0.00 0.00 1011.6
20260905171252 -17 230 4.8 16.1 0.00 0.00 0.00 1011.6
20260905171152 -17 236 4.8 16.1 0.00 0.00 0.00 1011.7
20260905171050 -17 225 4.8 16.1 0.00 0.00 0.00 1011.6
20260905170950 -17 223 4.8 12.9 0.00 0.00 0.00 1011.7
20260905170848 -17 238 4.8 12.9 0.00 0.00 0.00 1011.7
20260905170748 -17 229 4.8 12.9 0.00 0.00 0.00 1011.7
20260905170649 -17 225 4.8 12.9 0.00 0.00 0.00 1011.8
20260905170548 -17 225 4.8 12.9 0.00 0.00 0.00 1011.8
20260905170448 -17 225 4.8 12.9 0.00 0.00 0.00 1011.8
20260905170345 -17 225 4.8 12.9 0.00 0.00 0.00 1011.8
20260905170245 -17 225 6.4 12.9 0.00 0.00 0.00 1011.8
20260905170145 -17 225 6.4 12.9 0.00 0.00 0.00 1011.8
20260905170045 -17 225 6.4 12.9 0.00 0.00 0.00 1011.8
20260905165945 -17 225 4.8 12.9 0.00 0.00 0.00 1011.9
20260905165845 -17 219 4.8 11.3 0.00 0.00 0.00 1012.0
20260905165743 -17 224 4.8 11.3 0.00 0.00 0.00 1011.9
20260905165645 -17 223 4.8 14.5 0.00 0.00 0.00 1012.0
20260905165546 -17 314 4.8 14.5 0.00 0.00 0.00 1012.0
20260905165445 -17 225 4.8 14.5 0.00 0.00 0.00 1012.0
20260905165342 -17 224 4.8 14.5 0.00 0.00 0.00 1012.0
20260905165243 -17 223 4.8 14.5 0.00 0.00 0.00 1012.0
20260905165140 -17 234 4.8 14.5 0.00 0.00 0.00 1012.0
20260905165040 -17 244 4.8 14.5 0.00 0.00 0.00 1012.0
20260905164941 -17 340 4.8 14.5 0.00 0.00 0.00 1012.1
20260905164839 -17 342 6.4 14.5 0.00 0.00 0.00 1012.0
20260905164821 -17 333 6.4 16.1 0.00 0.00 0.00 1012.1
20260905164637 -17 328 6.4 16.1 0.00 0.00 0.00 1012.1
20260905164538 -17 231 6.4 16.1 0.00 0.00 0.00 1012.2
20260905164437 -17 250 8.0 16.1 0.00 0.00 0.00 1012.1
20260905164337 -17 318 8.0 16.1 0.00 0.00 0.00 1012.1
20260905164320 -17 305 8.0 16.1 0.00 0.00 0.00 1012.2
20260905164133 -17 329 8.0 16.1 0.00 0.00 0.00 1012.2
20260905164032 -17 225 8.0 16.1 0.00 0.00 0.00 1012.3
20260905163932 -17 223 8.0 16.1 0.00 0.00 0.00 1012.3
20260905163837 -17 238 8.0 16.1 0.00 0.00 0.00 1012.3
20260905163732 -17 234 8.0 16.1 0.00 0.00 0.00 1012.3
20260905163633 -17 221 8.0 16.1 0.00 0.00 0.00 1012.3
20260905163531 -17 222 8.0 16.1 0.00 0.00 0.00 1012.4
20260905163433 -17 222 8.0 14.5 0.00 0.00 0.00 1012.4
20260905163333 -17 228 8.0 14.5 0.00 0.00 0.00 1012.3
20260905163232 -17 224 8.0 14.5 0.00 0.00 0.00 1012.4
20260905163130 -17 225 8.0 14.5 0.00 0.00 0.00 1012.4
20260905163030 -17 220 8.0 14.5 0.00 0.00 0.00 1012.4
20260905162930 -17 225 8.0 14.5 0.00 0.00 0.00 1012.5
20260905162836 -17 236 8.0 14.5 0.00 0.00 0.00 1012.5
20260905162820 -17 219 8.0 16.1 0.00 0.00 0.00 1012.5
20260905162630 -17 219 9.7 16.1 0.00 0.00 0.00 1012.6
20260905162529 -17 207 9.7 16.1 0.00 0.00 0.00 1012.5
20260905162431 -17 223 9.7 16.1 0.00 0.00 0.00 1012.7
20260905162330 -17 221 8.0 16.1 0.00 0.00 0.00 1012.7
20260905162232 -17 229 8.0 16.1 0.00 0.00 0.00 1012.6
20260905162130 -17 216 8.0 16.1 0.00 0.00 0.00 1012.6
20260905162031 -17 227 9.7 17.7 0.00 0.00 0.00 1012.6
20260905161931 -17 227 8.0 17.7 0.00 0.00 0.00 1012.7
20260905161830 -17 223 8.0 17.7 0.00 0.00 0.00 1012.7
20260905161731 -17 223 8.0 17.7 0.00 0.00 0.00 1012.7
20260905161630 -17 236 8.0 17.7 0.00 0.00 0.00 1012.7
20260905161531 -17 223 8.0 17.7 0.00 0.00 0.00 1012.7
20260905161430 -17 222 8.0 17.7 0.00 0.00 0.00 1012.7
20260905161331 -17 222 8.0 17.7 0.00 0.00 0.00 1012.6
20260905161228 -17 233 8.0 17.7 0.00 0.00 0.00 1012.8
20260905161129 -17 223 8.0 17.7 0.00 0.00 0.00 1012.8
20260905161028 -17 223 8.0 14.5 0.00 0.00 0.00 1012.7
20260905160928 -17 222 8.0 14.5 0.00 0.00 0.00 1012.8
20260905160829 -17 221 8.0 14.5 0.00 0.00 0.00 1012.7
20260905160727 -17 224 9.7 14.5 0.00 0.00 0.00 1012.8
20260905160628 -17 229 9.7 14.5 0.00 0.00 0.00 1012.9
20260905160529 -17 228 9.7 19.3 0.00 0.00 0.00 1012.8
20260905160428 -17 225 9.7 19.3 0.00 0.00 0.00 1012.8
20260905160329 -17 231 9.7 19.3 0.00 0.00 0.00 1012.8
20260905160129 -17 229 9.7 19.3 0.00 0.00 0.00 1012.9
20260905160027 -17 224 9.7 19.3 0.00 0.00 0.00 1012.7
20260905155927 -17 229 9.7 19.3 0.00 0.00 0.00 1012.9
20260905155834 -17 222 8.0 19.3 0.00 0.00 0.00 1012.9
20260905155818 -17 225 8.0 19.3 0.00 0.00 0.00 1012.9
20260905155626 -17 223 8.0 19.3 0.00 0.00 0.00 1012.9
20260905155526 -17 211 8.0 17.7 0.00 0.00 0.00 1012.9
20260905155427 -17 225 6.4 17.7 0.00 0.00 0.00 1012.9
20260905155328 -17 224 6.4 16.1 0.00 0.00 0.00 1012.9
20260905155227 -17 224 6.4 12.9 0.00 0.00 0.00 1012.9
20260905155126 -17 225 6.4 12.9 0.00 0.00 0.00 1012.9
20260905155027 -17 220 4.8 12.9 0.00 0.00 0.00 1012.9
20260905154923 -17 225 4.8 12.9 0.00 0.00 0.00 1012.9
20260905154825 -17 226 4.8 12.9 0.00 0.00 0.00 1012.9
20260905154724 -17 238 4.8 12.9 0.00 0.00 0.00 1012.9
20260905154625 -17 242 4.8 14.5 0.00 0.00 0.00 1012.9
20260905154526 -17 228 4.8 14.5 0.00 0.00 0.00 1013.0
20260905154424 -17 234 4.8 14.5 0.00 0.00 0.00 1012.9
20260905154323 -17 229 4.8 14.5 0.00 0.00 0.00 1012.9
20260905154226 -17 337 4.8 14.5 0.00 0.00 0.00 1012.9
20260905154124 -17 225 4.8 14.5 0.00 0.00 0.00 1013.0
20260905154025 -17 225 6.4 14.5 0.00 0.00 0.00 1012.9
20260905153925 -17 329 6.4 14.5 0.00 0.00 0.00 1012.9
20260905153832 -17 228 6.4 14.5 0.00 0.00 0.00 1013.0
20260905153817 -17 248 6.4 14.5 0.00 0.00 0.00 1013.0
20260905153624 -17 221 6.4 14.5 0.00 0.00 0.00 1012.9
20260905153524 -17 237 6.4 12.9 0.00 0.00 0.00 1013.0
20260905153427 -17 225 6.4 12.9 0.00 0.00 0.00 1013.0
20260905153324 -17 225 6.4 12.9 0.00 0.00 0.00 1013.0
20260905153124 -17 229 6.4 12.9 0.00 0.00 0.00 1013.0
20260905153023 -17 229 6.4 12.9 0.00 0.00 0.00 1013.0
20260905152924 -17 229 6.4 12.9 0.00 0.00 0.00 1013.0
20260905152825 -17 229 8.0 12.9 0.00 0.00 0.00 1012.9
20260905152724 -17 227 8.0 12.9 0.00 0.00 0.00 1012.9
20260905152625 -17 225 8.0 14.5 0.00 0.00 0.00 1012.9
20260905152524 -17 222 6.4 14.5 0.00 0.00 0.00 1012.9
20260905152423 -17 223 6.4 14.5 0.00 0.00 0.00 1012.9
20260905152324 -17 222 6.4 14.5 0.00 0.00 0.00 1012.9
20260905152224 -17 221 6.4 14.5 0.00 0.00 0.00 1012.9
20260905152124 -17 227 6.4 14.5 0.00 0.00 0.00 1012.9
20260905152021 -17 225 6.4 14.5 0.00 0.00 0.00 1012.9
20260905151922 -17 229 6.4 14.5 0.00 0.00 0.00 1013.0
20260905151821 -17 228 6.4 14.5 0.00 0.00 0.00 1013.0
20260905151723 -17 246 6.4 14.5 0.00 0.00 0.00 1012.9
20260905151623 -17 230 6.4 14.5 0.00 0.00 0.00 1013.0
20260905151523 -17 303 6.4 14.5 0.00 0.00 0.00 1012.9
20260905151422 -17 248 6.4 16.1 0.00 0.00 0.00 1013.0
20260905151330 -17 265 8.0 17.7 0.00 0.00 0.00 1012.9
20260905151315 -17 225 6.4 17.7 0.00 0.00 0.00 1013.0
20260905151121 -17 311 8.0 17.7 0.00 0.00 0.00 1012.9
20260905151022 -17 269 8.0 17.7 0.00 0.00 0.00 1013.0
20260905150922 -17 227 8.0 17.7 0.00 0.00 0.00 1013.1
20260905150827 -17 234 8.0 17.7 0.00 0.00 0.00 1013.1
20260905150813 -17 234 8.0 17.7 0.00 0.00 0.00 1013.1
20260905150621 -17 211 8.0 17.7 0.00 0.00 0.00 1013.0
20260905150522 -17 221 9.7 17.7 0.00 0.00 0.00 1013.1
20260905150422 -17 224 8.0 17.7 0.00 0.00 0.00 1013.1
20260905150323 -17 223 8.0 16.1 0.00 0.00 0.00 1013.1
20260905150222 -17 306 8.0 16.1 0.00 0.00 0.00 1013.1
20260905150123 -17 225 8.0 16.1 0.00 0.00 0.00 1013.1
20260905150022 -17 228 8.0 16.1 0.00 0.00 0.00 1013.1
20260905145923 -17 223 8.0 16.1 0.00 0.00 0.00 1013.1
20260905145822 -17 235 8.0 16.1 0.00 0.00 0.00 1013.1
20260905145722 -17 219 6.4 16.1 0.00 0.00 0.00 1013.1
20260905145622 -17 223 6.4 16.1 0.00 0.00 0.00 1013.2
20260905145521 -17 223 6.4 14.5 0.00 0.00 0.00 1013.2
20260905145422 -17 214 6.4 14.5 0.00 0.00 0.00 1013.2
20260905145321 -17 228 4.8 14.5 0.00 0.00 0.00 1013.2
20260905145224 -17 229 6.4 14.5 0.00 0.00 0.00 1013.2
20260905145022 -17 221 6.4 14.5 0.00 0.00 0.00 1013.3
20260905144922 -17 271 6.4 11.3 0.00 0.00 0.00 1013.2
20260905144822 -17 355 6.4 12.9 0.00 0.00 0.00 1013.2
20260905144723 -17 300 6.4 12.9 0.00 0.00 0.00 1013.2
20260905144622 -17 309 6.4 12.9 0.00 0.00 0.00 1013.2
20260905144523 -17 310 6.4 12.9 0.00 0.00 0.00 1013.2
20260905144421 -17 338 6.4 12.9 0.00 0.00 0.00 1013.3
20260905144321 -17 225 6.4 12.9 0.00 0.00 0.00 1013.2
20260905144223 -17 220 6.4 12.9 0.00 0.00 0.00 1013.2
20260905144122 -17 223 6.4 12.9 0.00 0.00 0.00 1013.3
20260905144021 -17 329 6.4 12.9 0.00 0.00 0.00 1013.3
20260905143923 -17 279 6.4 12.9 0.00 0.00 0.00 1013.3
20260905143822 -17 311 6.4 12.9 0.00 0.00 0.00 1013.3
20260905143722 -17 263 6.4 20.9 0.00 0.00 0.00 1013.4
20260905143622 -17 324 6.4 20.9 0.00 0.00 0.00 1013.4
20260905143523 -17 321 6.4 20.9 0.00 0.00 0.00 1013.3
20260905143422 -17 222 6.4 20.9 0.00 0.00 0.00 1013.4
20260905143322 -17 301 6.4 20.9 0.00 0.00 0.00 1013.3
20260905143222 -17 227 6.4 20.9 0.00 0.00 0.00 1013.3
20260905143122 -17 223 6.4 20.9 0.00 0.00 0.00 1013.3
20260905143021 -17 300 6.4 20.9 0.00 0.00 0.00 1013.4
20260905142921 -17 311 6.4 20.9 0.00 0.00 0.00 1013.4
20260905142821 -17 227 4.8 20.9 0.00 0.00 0.00 1013.4
20260905142722 -17 311 4.8 16.1 0.00 0.00 0.00 1013.4
20260905142623 -17 229 4.8 16.1 0.00 0.00 0.00 1013.3
20260905142521 -17 229 4.8 16.1 0.00 0.00 0.00 1013.3
20260905142421 -17 225 4.8 16.1 0.00 0.00 0.00 1013.2
20260905142322 -17 223 4.8 16.1 0.00 0.00 0.00 1013.3
20260905142122 -17 221 4.8 16.1 0.00 0.00 0.00 1013.3
20260905142022 -17 350 4.8 16.1 0.00 0.00 0.00 1013.3
20260905141922 -17 250 4.8 14.5 0.00 0.00 0.00 1013.3
20260905141822 -17 321 4.8 14.5 0.00 0.00 0.00 1013.3
20260905141721 -17 288 4.8 14.5 0.00 0.00 0.00 1013.3
20260905141621 -17 325 4.8 12.9 0.00 0.00 0.00 1013.2
20260905141522 -17 340 4.8 9.7 0.00 0.00 0.00 1013.3
20260905141422 -17 239 4.8 9.7 0.00 0.00 0.00 1013.3
20260905141323 -17 232 4.8 9.7 0.00 0.00 0.00 1013.2
20260905141123 -17 229 4.8 9.7 0.00 0.00 0.00 1013.3
20260905141022 -17 229 4.8 9.7 0.00 0.00 0.00 1013.3
20260905140924 -17 229 4.8 9.7 0.00 0.00 0.00 1013.2
20260905140823 -17 229 4.8 9.7 0.00 0.00 0.00 1013.2
20260905140722 -17 229 4.8 9.7 0.00 0.00 0.00 1013.3
20260905140622 -17 258 4.8 12.9 0.00 0.00 0.00 1013.3
20260905140523 -17 231 4.8 12.9 0.00 0.00 0.00 1013.3
20260905140421 -17 243 4.8 12.9 0.00 0.00 0.00 1013.3
20260905140329 -17 243 4.8 12.9 0.00 0.00 0.00 1013.4
20260905140314 -17 308 4.8 12.9 0.00 0.00 0.00 1013.3
20260905140122 -17 308 6.4 12.9 0.00 0.00 0.00 1013.4
20260905140021 -17 316 6.4 12.9 0.00 0.00 0.00 1013.4
20260905135920 -17 254 4.8 12.9 0.00 0.00 0.00 1013.3
20260905135820 -17 307 6.4 12.9 0.00 0.00 0.00 1013.3
20260905135718 -17 304 6.4 12.9 0.00 0.00 0.00 1013.3
20260905135620 -17 223 4.8 12.9 0.00 0.00 0.00 1013.3
20260905135518 -17 229 4.8 11.3 0.00 0.00 0.00 1013.3
20260905135417 -17 227 4.8 11.3 0.00 0.00 0.00 1013.5
20260905135317 -17 229 4.8 11.3 0.00 0.00 0.00 1013.5
20260905135117 -17 227 4.8 11.3 0.00 0.00 0.00 1013.4
20260905135016 -17 227 4.8 11.3 0.00 0.00 0.00 1013.5
20260905134917 -17 227 4.8 11.3 0.00 0.00 0.00 1013.4
20260905134816 -17 227 3.2 9.7 0.00 0.00 0.00 1013.3
20260905134714 -17 311 3.2 9.7 0.00 0.00 0.00 1013.4
20260905134614 -17 311 4.8 9.7 0.00 0.00 0.00 1013.4
20260905134514 -17 230 4.8 9.7 0.00 0.00 0.00 1013.4
20260905134413 -17 229 3.2 9.7 0.00 0.00 0.00 1013.5
20260905134315 -17 317 3.2 9.7 0.00 0.00 0.00 1013.4
20260905134213 -17 309 3.2 8.0 0.00 0.00 0.00 1013.5
20260905134113 -17 244 4.8 8.0 0.00 0.00 0.00 1013.4
20260905134015 -17 242 4.8 8.0 0.00 0.00 0.00 1013.4
20260905133912 -17 241 4.8 9.7 0.00 0.00 0.00 1013.4
20260905133813 -17 253 4.8 11.3 0.00 0.00 0.00 1013.5
20260905133710 -17 254 4.8 11.3 0.00 0.00 0.00 1013.5
20260905133610 -17 225 4.8 11.3 0.00 0.00 0.00 1013.4
20260905133510 -17 224 4.8 11.3 0.00 0.00 0.00 1013.5
20260905133411 -17 225 4.8 11.3 0.00 0.00 0.00 1013.6
20260905133326 -17 225 4.8 11.3 0.00 0.00 0.00 1013.5
20260905133311 -17 225 4.8 11.3 0.00 0.00 0.00 1013.4
20260905133109 -17 225 4.8 11.3 0.00 0.00 0.00 1013.5
20260905133009 -17 226 4.8 11.3 0.00 0.00 0.00 1013.4
20260905132909 -17 226 4.8 11.3 0.00 0.00 0.00 1013.4
20260905132807 -17 219 4.8 9.7 0.00 0.00 0.00 1013.4
20260905132605 -17 287 4.8 9.7 0.00 0.00 0.00 1013.4
20260905132506 -17 317 4.8 9.7 0.00 0.00 0.00 1013.4
20260905132406 -17 325 4.8 9.7 0.00 0.00 0.00 1013.4
20260905132306 -17 325 6.4 9.7 0.00 0.00 0.00 1013.4
20260905132105 -17 225 6.4 12.9 0.00 0.00 0.00 1013.5
20260905132004 -17 227 6.4 12.9 0.00 0.00 0.00 1013.5
20260905131903 -17 232 6.4 12.9 0.00 0.00 0.00 1013.5
20260905131805 -17 239 6.4 12.9 0.00 0.00 0.00 1013.4
20260905131601 -17 259 6.4 12.9 0.00 0.00 0.00 1013.5
20260905131501 -17 227 6.4 12.9 0.00 0.00 0.00 1013.4
20260905131359 -17 228 6.4 12.9 0.00 0.00 0.00 1013.4
20260905131300 -17 227 4.8 12.9 0.00 0.00 0.00 1013.4
20260905131201 -17 222 4.8 12.9 0.00 0.00 0.00 1013.5
20260905131059 -17 227 4.8 11.3 0.00 0.00 0.00 1013.5
20260905131001 -17 228 4.8 11.3 0.00 0.00 0.00 1013.6
20260905130900 -17 228 4.8 11.3 0.00 0.00 0.00 1013.5
20260905130800 -17 228 4.8 11.3 0.00 0.00 0.00 1013.5
20260905130659 -17 227 4.8 11.3 0.00 0.00 0.00 1013.6
20260905130559 -17 229 4.8 11.3 0.00 0.00 0.00 1013.5
20260905130458 -17 229 4.8 11.3 0.00 0.00 0.00 1013.6
20260905130357 -17 229 4.8 11.3 0.00 0.00 0.00 1013.6
20260905130257 -17 229 4.8 11.3 0.00 0.00 0.00 1013.7
20260905130159 -17 229 4.8 11.3 0.00 0.00 0.00 1013.6
20260905130059 -17 230 4.8 11.3 0.00 0.00 0.00 1013.7
20260905125957 -17 230 4.8 11.3 0.00 0.00 0.00 1013.6
20260905125857 -17 224 4.8 12.9 0.00 0.00 0.00 1013.6
20260905125759 -17 232 4.8 12.9 0.00 0.00 0.00 1013.6